DAL7 KLAX-RJTT

Flight info

Callsign DAL7
Flight time 11h 4m
Altitude 36000
Route SUMMR2 MCKEY DCT LIBBO DCT BRINY DCT BOARS DCT AMAKR DCT LINUZ DCT NATTE DCT ZANNG DCT 48N140W 51N150W/N0485F380 53N160W DCT RIZON DCT EYETI DCT 51N170E DCT ASPIN/N0496F400 DCT AKISU DCT AGEDI ADGOR R591 ADNAP Y807 POLIX
Aircraft A359/H-SDE2E3GHIJ3J4J5LM1ORWXY/LB1D1

Departure

Time 2026-04-24 03:17
Airport Los Angeles International Airport (KLAX)

Arrival

Time 2026-04-24 14:22
Airport Tokyo Haneda International Airport (RJTT)
Time Latitude Longitude Altitude Speed Heading
2026-04-24 02:38 33.94476 -118.40993 101 ft 0 kts 261°
2026-04-24 03:04 33.94476 -118.40988 101 ft 2 kts 261°
2026-04-24 03:04 33.94479 -118.40966 101 ft 3 kts 261°
2026-04-24 03:05 33.94482 -118.40942 101 ft 3 kts 261°
2026-04-24 03:05 33.94485 -118.40919 100 ft 3 kts 273°
2026-04-24 03:05 33.94484 -118.40904 99 ft 2 kts 303°
2026-04-24 03:05 33.94485 -118.40905 99 ft 2 kts 308°
2026-04-24 03:06 33.94497 -118.40911 100 ft 3 kts 340°
2026-04-24 03:06 33.94516 -118.40914 102 ft 3 kts 354°
2026-04-24 03:06 33.94532 -118.40915 102 ft 1 kts 354°
2026-04-24 03:06 33.94533 -118.40916 102 ft 0 kts 354°
2026-04-24 03:09 33.94557 -118.40912 103 ft 7 kts 16°
2026-04-24 03:09 33.94618 -118.40899 102 ft 10 kts 356°
2026-04-24 03:09 33.94684 -118.40908 102 ft 9 kts 354°
2026-04-24 03:09 33.94727 -118.40908 104 ft 0 kts
2026-04-24 03:10 33.94734 -118.40906 105 ft 3 kts
2026-04-24 03:10 33.94774 -118.40886 106 ft 8 kts 13°
2026-04-24 03:10 33.94832 -118.40849 106 ft 12 kts 59°
2026-04-24 03:11 33.94850 -118.40723 106 ft 19 kts 82°
2026-04-24 03:11 33.94866 -118.40574 106 ft 17 kts 83°
2026-04-24 03:11 33.94879 -118.40445 106 ft 14 kts 83°
2026-04-24 03:11 33.94891 -118.40331 106 ft 13 kts 83°
2026-04-24 03:12 33.94902 -118.40224 106 ft 13 kts 83°
2026-04-24 03:12 33.94913 -118.40114 106 ft 13 kts 83°
2026-04-24 03:12 33.94925 -118.40000 106 ft 14 kts 83°
2026-04-24 03:12 33.94942 -118.39935 106 ft 0 kts 51°
2026-04-24 03:15 33.94950 -118.39927 107 ft 3 kts 41°
2026-04-24 03:15 33.94978 -118.39914 110 ft 5 kts 10°
2026-04-24 03:16 33.95018 -118.39918 113 ft 7 kts 354°
2026-04-24 03:16 33.95042 -118.39972 112 ft 11 kts 261°
2026-04-24 03:16 33.95016 -118.40198 113 ft 53 kts 263°
2026-04-24 03:16 33.94949 -118.40859 112 ft 105 kts 263°
2026-04-24 03:17 33.94840 -118.41922 114 ft 149 kts 262°
2026-04-24 03:17 33.94705 -118.43185 553 ft 149 kts 262°
2026-04-24 03:17 33.94580 -118.44463 949 ft 156 kts 262°
2026-04-24 03:17 33.94453 -118.45758 1354 ft 162 kts 263°
2026-04-24 03:18 33.94322 -118.47172 1527 ft 178 kts 265°
2026-04-24 03:18 33.94260 -118.48720 1729 ft 195 kts 270°
2026-04-24 03:18 33.94227 -118.50445 1988 ft 212 kts 270°
2026-04-24 03:18 33.94155 -118.52303 2173 ft 234 kts 266°
2026-04-24 03:19 33.93992 -118.54328 2513 ft 249 kts 265°
2026-04-24 03:19 33.93813 -118.56424 3063 ft 254 kts 265°
2026-04-24 03:19 33.93637 -118.58554 3626 ft 257 kts 265°
2026-04-24 03:19 33.93462 -118.60717 4194 ft 261 kts 265°
2026-04-24 03:20 33.93289 -118.62895 4732 ft 267 kts 264°
2026-04-24 03:20 33.93112 -118.65141 5284 ft 271 kts 265°
2026-04-24 03:20 33.92938 -118.67419 5876 ft 275 kts 265°
2026-04-24 03:20 33.92757 -118.69732 6470 ft 279 kts 265°
2026-04-24 03:21 33.92574 -118.72064 7134 ft 278 kts 265°
2026-04-24 03:21 33.92396 -118.74341 7924 ft 274 kts 265°
2026-04-24 03:21 33.92217 -118.76625 8656 ft 274 kts 265°
2026-04-24 03:21 33.92037 -118.78927 9343 ft 276 kts 265°
2026-04-24 03:22 33.91856 -118.81228 10040 ft 276 kts 265°
2026-04-24 03:22 33.91723 -118.83570 10444 ft 287 kts 269°
2026-04-24 03:22 33.91759 -118.86056 10697 ft 304 kts 272°
2026-04-24 03:22 33.91842 -118.88626 10940 ft 319 kts 272°
2026-04-24 03:23 33.91930 -118.91355 11187 ft 334 kts 272°
2026-04-24 03:23 33.92019 -118.94216 11427 ft 348 kts 272°
2026-04-24 03:23 33.92108 -118.97181 11666 ft 360 kts 272°
2026-04-24 03:23 33.92281 -119.00224 12049 ft 367 kts 278°
2026-04-24 03:24 33.93051 -119.03157 12585 ft 370 kts 295°
2026-04-24 03:24 33.94343 -119.05852 13156 ft 372 kts 300°
2026-04-24 03:24 33.95726 -119.08492 13695 ft 374 kts 300°
2026-04-24 03:24 33.97103 -119.11121 14170 ft 376 kts 300°
2026-04-24 03:25 33.98502 -119.13808 14587 ft 379 kts 300°
2026-04-24 03:25 33.99924 -119.16504 15031 ft 382 kts 302°
2026-04-24 03:25 34.01632 -119.18985 15476 ft 388 kts 313°
2026-04-24 03:25 34.03748 -119.21051 15941 ft 393 kts 321°
2026-04-24 03:26 34.05987 -119.22971 16396 ft 396 kts 321°
2026-04-24 03:26 34.08219 -119.24866 16863 ft 398 kts 321°
2026-04-24 03:26 34.10485 -119.26799 17335 ft 400 kts 321°
2026-04-24 03:26 34.12766 -119.28753 17804 ft 403 kts 321°
2026-04-24 03:27 34.15061 -119.30725 18283 ft 405 kts 321°
2026-04-24 03:27 34.17372 -119.32713 18690 ft 408 kts 321°
2026-04-24 03:27 34.19701 -119.34720 19091 ft 411 kts 321°
2026-04-24 03:27 34.22011 -119.36712 19490 ft 414 kts 321°
2026-04-24 03:28 34.24359 -119.38739 19914 ft 416 kts 321°
2026-04-24 03:28 34.26728 -119.40785 20338 ft 419 kts 321°
2026-04-24 03:28 34.29106 -119.42841 20746 ft 421 kts 321°
2026-04-24 03:28 34.31502 -119.44915 21165 ft 424 kts 321°
2026-04-24 03:29 34.33886 -119.46978 21588 ft 426 kts 321°
2026-04-24 03:29 34.36311 -119.49079 22025 ft 429 kts 321°
2026-04-24 03:29 34.38750 -119.51198 22464 ft 432 kts 320°
2026-04-24 03:29 34.41096 -119.53492 22892 ft 432 kts 314°
2026-04-24 03:30 34.43168 -119.56128 23344 ft 432 kts 308°
2026-04-24 03:30 34.45110 -119.58862 23741 ft 435 kts 307°
2026-04-24 03:30 34.47080 -119.61670 24126 ft 437 kts 307°
2026-04-24 03:30 34.49060 -119.64491 24523 ft 439 kts 307°
2026-04-24 03:31 34.51051 -119.67325 24918 ft 441 kts 307°
2026-04-24 03:31 34.53028 -119.70134 25320 ft 443 kts 307°
2026-04-24 03:31 34.55046 -119.73006 25709 ft 445 kts 307°
2026-04-24 03:31 34.57063 -119.75878 26081 ft 447 kts 307°
2026-04-24 03:32 34.59062 -119.78727 26477 ft 449 kts 307°
2026-04-24 03:32 34.61089 -119.81618 26870 ft 451 kts 307°
2026-04-24 03:32 34.63123 -119.84521 27291 ft 452 kts 307°
2026-04-24 03:32 34.65170 -119.87444 27663 ft 455 kts 307°
2026-04-24 03:33 34.67230 -119.90389 27997 ft 457 kts 307°
2026-04-24 03:33 34.69272 -119.93311 28334 ft 459 kts 307°
2026-04-24 03:33 34.71346 -119.96279 28687 ft 461 kts 307°
2026-04-24 03:33 34.73429 -119.99265 29017 ft 463 kts 307°
2026-04-24 03:34 34.75521 -120.02265 29352 ft 465 kts 307°
2026-04-24 03:34 34.77615 -120.05270 29714 ft 465 kts 307°
2026-04-24 03:34 34.79677 -120.08230 30183 ft 462 kts 307°
2026-04-24 03:34 34.81753 -120.11214 30591 ft 461 kts 307°
2026-04-24 03:35 34.83831 -120.14203 30955 ft 459 kts 307°
2026-04-24 03:35 34.85875 -120.17147 31321 ft 458 kts 307°
2026-04-24 03:35 34.87927 -120.20105 31628 ft 457 kts 307°
2026-04-24 03:35 34.89980 -120.23067 31933 ft 457 kts 306°
2026-04-24 03:36 34.92028 -120.26024 32258 ft 455 kts 306°
2026-04-24 03:36 34.94070 -120.28976 32610 ft 454 kts 306°
2026-04-24 03:36 34.96107 -120.31922 32907 ft 454 kts 306°
2026-04-24 03:36 34.98125 -120.34844 33212 ft 453 kts 306°
2026-04-24 03:37 35.00136 -120.37756 33768 ft 445 kts 306°
2026-04-24 03:37 35.02118 -120.40625 34369 ft 438 kts 306°
2026-04-24 03:37 35.04064 -120.43450 34710 ft 435 kts 306°
2026-04-24 03:37 35.06014 -120.46283 34955 ft 434 kts 305°
2026-04-24 03:38 35.07954 -120.49107 35166 ft 434 kts 305°
2026-04-24 03:38 35.09852 -120.51868 35380 ft 433 kts 305°
2026-04-24 03:38 35.11804 -120.54711 35625 ft 432 kts 305°
2026-04-24 03:38 35.13732 -120.57521 35887 ft 430 kts 305°
2026-04-24 03:39 35.15654 -120.60324 36024 ft 431 kts 305°
2026-04-24 03:39 35.19542 -120.66007 36033 ft 439 kts 305°
2026-04-24 03:40 35.23494 -120.71790 36032 ft 446 kts 305°
2026-04-24 03:40 35.27491 -120.77646 36040 ft 453 kts 305°
2026-04-24 03:41 35.31567 -120.83626 36041 ft 459 kts 306°
2026-04-24 03:41 35.35677 -120.89667 36045 ft 463 kts 306°
2026-04-24 03:42 35.39786 -120.95716 36049 ft 465 kts 306°
2026-04-24 03:42 35.43935 -121.01836 36056 ft 466 kts 306°
2026-04-24 03:43 35.48083 -121.07965 36060 ft 466 kts 306°
2026-04-24 03:43 35.52246 -121.14035 36059 ft 467 kts 306°
2026-04-24 03:44 35.56479 -121.20086 36064 ft 467 kts 307°
2026-04-24 03:44 35.60720 -121.26166 36067 ft 467 kts 306°
2026-04-24 03:45 35.64912 -121.32210 36067 ft 468 kts 306°
2026-04-24 03:45 35.69131 -121.38315 36070 ft 468 kts 306°
2026-04-24 03:46 35.73348 -121.44429 36074 ft 469 kts 306°
2026-04-24 03:46 35.77578 -121.50571 36075 ft 469 kts 306°
2026-04-24 03:47 35.81800 -121.56713 36079 ft 470 kts 306°
2026-04-24 03:47 35.86004 -121.62840 36080 ft 470 kts 306°
2026-04-24 03:48 35.90233 -121.69013 36082 ft 471 kts 306°
2026-04-24 03:48 35.94431 -121.75153 36086 ft 471 kts 306°
2026-04-24 03:49 35.98810 -121.81203 36089 ft 475 kts 313°
2026-04-24 03:49 36.04198 -121.85911 36095 ft 484 kts 326°
2026-04-24 03:50 36.09170 -121.89150 36095 ft 487 kts 328°
2026-04-24 03:50 36.16232 -121.93512 36103 ft 487 kts 328°
2026-04-24 03:51 36.21288 -121.96637 36113 ft 487 kts 328°
2026-04-24 03:51 36.27344 -122.00417 36121 ft 486 kts 328°
2026-04-24 03:52 36.33352 -122.04191 36118 ft 486 kts 328°
2026-04-24 03:52 36.39411 -122.08007 36119 ft 486 kts 328°
2026-04-24 03:53 36.45412 -122.11792 36119 ft 486 kts 327°
2026-04-24 03:53 36.51453 -122.15608 36118 ft 485 kts 327°
2026-04-24 03:54 36.57489 -122.19428 36119 ft 485 kts 327°
2026-04-24 03:54 36.63466 -122.23216 36120 ft 485 kts 327°
2026-04-24 03:55 36.69489 -122.27040 36120 ft 484 kts 327°
2026-04-24 03:55 36.75493 -122.30859 36119 ft 484 kts 327°
2026-04-24 03:56 36.81452 -122.34657 36112 ft 483 kts 327°
2026-04-24 03:56 36.87451 -122.38486 36107 ft 482 kts 327°
2026-04-24 03:57 36.93436 -122.42313 36105 ft 482 kts 327°
2026-04-24 03:57 36.99409 -122.46140 36101 ft 482 kts 327°
2026-04-24 03:58 37.05344 -122.49949 36100 ft 482 kts 327°
2026-04-24 03:58 37.11308 -122.53784 36105 ft 482 kts 327°
2026-04-24 03:59 37.16708 -122.57261 36104 ft 482 kts 327°
2026-04-24 03:59 37.22679 -122.61113 36108 ft 482 kts 327°
2026-04-24 04:00 37.28612 -122.64946 36114 ft 482 kts 327°
2026-04-24 04:00 37.34807 -122.68315 36109 ft 486 kts 332°
2026-04-24 04:01 37.41085 -122.71472 36110 ft 486 kts 333°
2026-04-24 04:01 37.47382 -122.74603 36106 ft 486 kts 333°
2026-04-24 04:02 37.53633 -122.77722 36109 ft 485 kts 333°
2026-04-24 04:02 37.59921 -122.80873 36105 ft 485 kts 333°
2026-04-24 04:03 37.66194 -122.84026 36098 ft 485 kts 333°
2026-04-24 04:03 37.72423 -122.87162 36099 ft 484 kts 333°
2026-04-24 04:04 37.78688 -122.90323 36099 ft 485 kts 333°
2026-04-24 04:04 37.84981 -122.93502 36095 ft 485 kts 333°
2026-04-24 04:05 37.91206 -122.96653 36096 ft 485 kts 333°
2026-04-24 04:05 37.97476 -122.99833 36096 ft 484 kts 333°
2026-04-24 04:06 38.03710 -123.03001 36091 ft 484 kts 333°
2026-04-24 04:06 38.09985 -123.06194 36086 ft 484 kts 333°
2026-04-24 04:07 38.16220 -123.09375 36082 ft 484 kts 333°
2026-04-24 04:07 38.22388 -123.12687 36078 ft 479 kts 327°
2026-04-24 04:08 38.28137 -123.16972 36073 ft 476 kts 323°
2026-04-24 04:08 38.33733 -123.21422 36073 ft 476 kts 323°
2026-04-24 04:09 38.39335 -123.25933 36068 ft 476 kts 323°
2026-04-24 04:09 38.44948 -123.30445 36070 ft 472 kts 323°
2026-04-24 04:10 38.50402 -123.34815 36070 ft 461 kts 323°
2026-04-24 04:10 38.55850 -123.39195 36077 ft 460 kts 323°
2026-04-24 04:11 38.63957 -123.45732 36075 ft 460 kts 323°
2026-04-24 04:11 38.69343 -123.50081 36079 ft 460 kts 323°
2026-04-24 04:12 38.74768 -123.54469 36088 ft 460 kts 323°
2026-04-24 04:12 38.80154 -123.58833 36087 ft 459 kts 323°
2026-04-24 04:13 38.85572 -123.63231 36091 ft 459 kts 323°
2026-04-24 04:13 38.90978 -123.67627 36092 ft 459 kts 323°
2026-04-24 04:14 38.96350 -123.72006 36096 ft 459 kts 323°
2026-04-24 04:14 39.01612 -123.76608 36102 ft 456 kts 319°
2026-04-24 04:15 39.06683 -123.81536 36108 ft 456 kts 318°
2026-04-24 04:15 39.11679 -123.86476 36108 ft 455 kts 318°
2026-04-24 04:16 39.16716 -123.91472 36111 ft 455 kts 318°
2026-04-24 04:16 39.21747 -123.96462 36110 ft 455 kts 318°
2026-04-24 04:17 39.26740 -124.01418 36115 ft 455 kts 318°
2026-04-24 04:17 39.31769 -124.06418 36110 ft 455 kts 318°
2026-04-24 04:18 39.36780 -124.11411 36110 ft 456 kts 318°
2026-04-24 04:18 39.41815 -124.16436 36106 ft 456 kts 318°
2026-04-24 04:19 39.46813 -124.21434 36108 ft 456 kts 318°
2026-04-24 04:19 39.51841 -124.26472 36109 ft 457 kts 318°
2026-04-24 04:20 39.56865 -124.31514 36107 ft 457 kts 318°
2026-04-24 04:20 39.61891 -124.36568 36111 ft 457 kts 318°
2026-04-24 04:21 39.66917 -124.41632 36113 ft 457 kts 318°
2026-04-24 04:21 39.71917 -124.46679 36116 ft 457 kts 318°
2026-04-24 04:22 39.76956 -124.51776 36118 ft 457 kts 318°
2026-04-24 04:22 39.81962 -124.56848 36121 ft 458 kts 318°
2026-04-24 04:23 39.86990 -124.61953 36125 ft 458 kts 318°
2026-04-24 04:23 39.91998 -124.67046 36130 ft 458 kts 318°
2026-04-24 04:24 39.97041 -124.72186 36136 ft 458 kts 318°
2026-04-24 04:24 40.02039 -124.77288 36138 ft 458 kts 318°
2026-04-24 04:25 40.07063 -124.82428 36145 ft 459 kts 318°
2026-04-24 04:25 40.12061 -124.87551 36147 ft 459 kts 319°
2026-04-24 04:26 40.17084 -124.92710 36149 ft 459 kts 319°
2026-04-24 04:26 40.22100 -124.97871 36155 ft 459 kts 319°
2026-04-24 04:27 40.27131 -125.03058 36160 ft 459 kts 319°
2026-04-24 04:27 40.32129 -125.08220 36159 ft 459 kts 319°
2026-04-24 04:28 40.37156 -125.13422 36154 ft 459 kts 319°
2026-04-24 04:28 40.42176 -125.18629 36166 ft 460 kts 319°
2026-04-24 04:29 40.47167 -125.23815 36158 ft 460 kts 319°
2026-04-24 04:29 40.52190 -125.29045 36162 ft 461 kts 319°
2026-04-24 04:30 40.57223 -125.34294 36172 ft 461 kts 319°
2026-04-24 04:30 40.62251 -125.39549 36163 ft 461 kts 319°
2026-04-24 04:31 40.67257 -125.44790 36179 ft 461 kts 319°
2026-04-24 04:31 40.72262 -125.50043 36174 ft 461 kts 319°
2026-04-24 04:32 40.77298 -125.55337 36178 ft 462 kts 319°
2026-04-24 04:32 40.82299 -125.60607 36178 ft 462 kts 319°
2026-04-24 04:33 40.87335 -125.65923 36180 ft 462 kts 319°
2026-04-24 04:33 40.92381 -125.71260 36179 ft 463 kts 319°
2026-04-24 04:34 40.97371 -125.76548 36183 ft 463 kts 319°
2026-04-24 04:34 41.02401 -125.81885 36186 ft 465 kts 318°
2026-04-24 04:35 41.07476 -125.87286 36183 ft 468 kts 318°
2026-04-24 04:35 41.12526 -125.92673 36183 ft 468 kts 318°
2026-04-24 04:36 41.17607 -125.98102 36194 ft 468 kts 318°
2026-04-24 04:36 41.22680 -126.03532 36186 ft 468 kts 318°
2026-04-24 04:37 41.27752 -126.08974 36187 ft 468 kts 318°
2026-04-24 04:37 41.31961 -126.13497 36193 ft 468 kts 318°
2026-04-24 04:38 41.37848 -126.19839 36201 ft 468 kts 318°
2026-04-24 04:38 41.42058 -126.24383 36199 ft 467 kts 318°
2026-04-24 04:39 41.47110 -126.29845 36202 ft 467 kts 318°
2026-04-24 04:39 41.52159 -126.35317 36204 ft 467 kts 318°
2026-04-24 04:40 41.57179 -126.40768 36210 ft 467 kts 318°
2026-04-24 04:40 41.62243 -126.46278 36209 ft 467 kts 318°
2026-04-24 04:41 41.67098 -126.52005 36211 ft 466 kts 313°
2026-04-24 04:41 41.71701 -126.58123 36214 ft 466 kts 312°
2026-04-24 04:42 41.76224 -126.64256 36218 ft 467 kts 312°
2026-04-24 04:42 41.80807 -126.70493 36220 ft 468 kts 312°
2026-04-24 04:43 41.85358 -126.76687 36222 ft 468 kts 313°
2026-04-24 04:43 41.89940 -126.82930 36228 ft 469 kts 313°
2026-04-24 04:44 41.94509 -126.89147 36229 ft 470 kts 313°
2026-04-24 04:44 41.99102 -126.95404 36232 ft 470 kts 313°
2026-04-24 04:45 42.03688 -127.01667 36230 ft 471 kts 313°
2026-04-24 04:45 42.08268 -127.07939 36238 ft 471 kts 313°
2026-04-24 04:46 42.12862 -127.14243 36238 ft 471 kts 313°
2026-04-24 04:46 42.17465 -127.20575 36238 ft 472 kts 313°
2026-04-24 04:47 42.22049 -127.26897 36245 ft 475 kts 314°
2026-04-24 04:47 42.26682 -127.33299 36247 ft 477 kts 314°
2026-04-24 04:48 42.31318 -127.39717 36249 ft 479 kts 314°
2026-04-24 04:48 42.35972 -127.46176 36248 ft 480 kts 314°
2026-04-24 04:49 42.40640 -127.52668 36256 ft 481 kts 315°
2026-04-24 04:49 42.45315 -127.59182 36258 ft 483 kts 315°
2026-04-24 04:50 42.49983 -127.65705 36258 ft 484 kts 315°
2026-04-24 04:50 42.54652 -127.72258 36258 ft 476 kts 313°
2026-04-24 04:51 42.59182 -127.78607 36266 ft 463 kts 313°
2026-04-24 04:51 42.63655 -127.84887 36270 ft 462 kts 313°
2026-04-24 04:52 42.68094 -127.91142 36267 ft 462 kts 313°
2026-04-24 04:52 42.72541 -127.97424 36275 ft 462 kts 313°
2026-04-24 04:53 42.76985 -128.03718 36278 ft 460 kts 321°
2026-04-24 04:53 42.81492 -128.09946 36277 ft 461 kts 312°
2026-04-24 04:54 42.85912 -128.16317 36282 ft 461 kts 312°
2026-04-24 04:54 42.90306 -128.22650 36282 ft 461 kts 312°
2026-04-24 04:55 42.94744 -128.29009 36285 ft 461 kts 312°
2026-04-24 04:55 42.99178 -128.35356 36288 ft 461 kts 312°
2026-04-24 04:56 43.03606 -128.41707 36291 ft 461 kts 312°
2026-04-24 04:56 43.08002 -128.48028 36289 ft 461 kts 312°
2026-04-24 04:57 43.12423 -128.54398 36295 ft 461 kts 312°
2026-04-24 04:57 43.16845 -128.60787 36295 ft 461 kts 312°
2026-04-24 04:58 43.21267 -128.67190 36302 ft 461 kts 312°
2026-04-24 04:58 43.25652 -128.73552 36299 ft 461 kts 312°
2026-04-24 04:59 43.30070 -128.79978 36304 ft 461 kts 312°
2026-04-24 04:59 43.34443 -128.86353 36305 ft 461 kts 311°
2026-04-24 05:00 43.38844 -128.92782 36310 ft 461 kts 311°
2026-04-24 05:00 43.43246 -128.99229 36314 ft 461 kts 311°
2026-04-24 05:01 43.47646 -129.05686 36319 ft 461 kts 311°
2026-04-24 05:01 43.52015 -129.12113 36326 ft 462 kts 311°
2026-04-24 05:02 43.56424 -129.18613 36317 ft 463 kts 311°
2026-04-24 05:02 43.60800 -129.25079 36318 ft 464 kts 311°
2026-04-24 05:03 43.65210 -129.31611 36317 ft 464 kts 311°
2026-04-24 05:03 43.69592 -129.38117 36319 ft 465 kts 311°
2026-04-24 05:04 43.73998 -129.44673 36327 ft 465 kts 311°
2026-04-24 05:04 43.78413 -129.51258 36327 ft 466 kts 311°
2026-04-24 05:05 43.82788 -129.57799 36328 ft 466 kts 311°
2026-04-24 05:05 43.87202 -129.64413 36333 ft 467 kts 311°
2026-04-24 05:06 43.89408 -129.67724 36213 ft 468 kts 312°
2026-04-24 05:06 43.91614 -129.71061 36346 ft 469 kts 314°
2026-04-24 05:06 43.96061 -129.77753 36338 ft 478 kts 314°
2026-04-24 05:07 44.00623 -129.84623 36336 ft 487 kts 314°
2026-04-24 05:07 44.05233 -129.91588 36341 ft 496 kts 314°
2026-04-24 05:08 44.09738 -129.98915 36347 ft 500 kts 306°
2026-04-24 05:08 44.13613 -130.06953 36351 ft 500 kts 304°
2026-04-24 05:09 44.17377 -130.15109 36361 ft 500 kts 304°
2026-04-24 05:09 44.21127 -130.23302 36362 ft 500 kts 304°
2026-04-24 05:10 44.24856 -130.31447 36358 ft 501 kts 304°
2026-04-24 05:10 44.28608 -130.39641 36371 ft 501 kts 304°
2026-04-24 05:11 44.32357 -130.47846 36372 ft 501 kts 304°
2026-04-24 05:11 44.36112 -130.56085 36369 ft 501 kts 303°
2026-04-24 05:12 44.39828 -130.64266 36370 ft 501 kts 303°
2026-04-24 05:12 44.43560 -130.72513 36374 ft 501 kts 303°
2026-04-24 05:13 44.49160 -130.84922 36387 ft 502 kts 303°
2026-04-24 05:14 44.52856 -130.93141 36390 ft 502 kts 303°
2026-04-24 05:14 44.56566 -131.01423 36381 ft 502 kts 303°
2026-04-24 05:15 44.60279 -131.09730 36387 ft 502 kts 303°
2026-04-24 05:15 44.63991 -131.18056 36392 ft 502 kts 303°
2026-04-24 05:16 44.67670 -131.26334 36393 ft 502 kts 303°
2026-04-24 05:16 44.71368 -131.34674 36398 ft 502 kts 303°
2026-04-24 05:17 44.75052 -131.43014 36401 ft 502 kts 303°
2026-04-24 05:17 44.78732 -131.51370 36401 ft 502 kts 303°
2026-04-24 05:18 44.82391 -131.59696 36406 ft 502 kts 303°
2026-04-24 05:18 44.86057 -131.68065 36412 ft 502 kts 303°
2026-04-24 05:19 44.89714 -131.76440 36412 ft 502 kts 302°
2026-04-24 05:19 44.93370 -131.84834 36416 ft 502 kts 302°
2026-04-24 05:20 44.97020 -131.93247 36419 ft 502 kts 302°
2026-04-24 05:20 45.00664 -132.01665 36422 ft 502 kts 302°
2026-04-24 05:21 45.04275 -132.10033 36427 ft 502 kts 302°
2026-04-24 05:21 45.07906 -132.18473 36430 ft 502 kts 302°
2026-04-24 05:22 45.11536 -132.26931 36434 ft 502 kts 302°
2026-04-24 05:22 45.15156 -132.35392 36435 ft 502 kts 302°
2026-04-24 05:23 45.18745 -132.43812 36441 ft 502 kts 302°
2026-04-24 05:23 45.22352 -132.52293 36440 ft 501 kts 302°
2026-04-24 05:24 45.25950 -132.60783 36444 ft 502 kts 301°
2026-04-24 05:24 45.29543 -132.69285 36450 ft 502 kts 301°
2026-04-24 05:25 45.33131 -132.77800 36452 ft 502 kts 301°
2026-04-24 05:25 45.36684 -132.86258 36459 ft 502 kts 301°
2026-04-24 05:26 45.40255 -132.94784 36459 ft 502 kts 301°
2026-04-24 05:26 45.43823 -133.03332 36460 ft 502 kts 301°
2026-04-24 05:27 45.47387 -133.11893 36466 ft 502 kts 301°
2026-04-24 05:27 45.50350 -133.19031 36469 ft 502 kts 301°
2026-04-24 05:28 45.53901 -133.27613 36469 ft 502 kts 301°
2026-04-24 05:28 45.58015 -133.37581 36473 ft 502 kts 301°
2026-04-24 05:29 45.60982 -133.44793 36476 ft 502 kts 301°
2026-04-24 05:29 45.64494 -133.53357 36475 ft 502 kts 301°
2026-04-24 05:30 45.68021 -133.61987 36481 ft 502 kts 300°
2026-04-24 05:30 45.71549 -133.70641 36483 ft 502 kts 300°
2026-04-24 05:31 45.75046 -133.79251 36488 ft 503 kts 300°
2026-04-24 05:31 45.78560 -133.87928 36486 ft 502 kts 300°
2026-04-24 05:32 45.82060 -133.96591 36494 ft 502 kts 300°
2026-04-24 05:32 45.85529 -134.05207 36500 ft 502 kts 300°
2026-04-24 05:33 45.89021 -134.13910 36499 ft 502 kts 300°
2026-04-24 05:33 45.92502 -134.22615 36504 ft 502 kts 300°
2026-04-24 05:34 45.97700 -134.35660 36505 ft 501 kts 300°
2026-04-24 05:34 46.01138 -134.44324 36509 ft 501 kts 300°
2026-04-24 05:35 46.04589 -134.53049 36510 ft 501 kts 299°
2026-04-24 05:35 46.08036 -134.61790 36513 ft 501 kts 299°
2026-04-24 05:36 46.11454 -134.70484 36517 ft 501 kts 299°
2026-04-24 05:36 46.14888 -134.79247 36519 ft 501 kts 299°
2026-04-24 05:37 46.18314 -134.88016 36524 ft 501 kts 299°
2026-04-24 05:37 46.21710 -134.96739 36527 ft 501 kts 299°
2026-04-24 05:38 46.25118 -135.05520 36527 ft 500 kts 299°
2026-04-24 05:38 46.28520 -135.14315 36524 ft 500 kts 299°
2026-04-24 05:39 46.31889 -135.23053 36535 ft 500 kts 299°
2026-04-24 05:39 46.35271 -135.31850 36536 ft 500 kts 298°
2026-04-24 05:40 46.38647 -135.40662 36536 ft 499 kts 298°
2026-04-24 05:40 46.42017 -135.49484 36536 ft 500 kts 298°
2026-04-24 05:41 46.45376 -135.58310 36537 ft 500 kts 298°
2026-04-24 05:41 46.48733 -135.67155 36540 ft 499 kts 298°
2026-04-24 05:42 46.52059 -135.75949 36540 ft 499 kts 298°
2026-04-24 05:42 46.55396 -135.84803 36545 ft 499 kts 298°
2026-04-24 05:43 46.58725 -135.93662 36547 ft 499 kts 298°
2026-04-24 05:43 46.62026 -136.02477 36546 ft 499 kts 298°
2026-04-24 05:44 46.65341 -136.11357 36551 ft 499 kts 298°
2026-04-24 05:44 46.68650 -136.20250 36554 ft 499 kts 298°
2026-04-24 05:45 46.71953 -136.29160 36558 ft 499 kts 297°
2026-04-24 05:45 46.75218 -136.37996 36560 ft 498 kts 297°
2026-04-24 05:46 46.78504 -136.46915 36559 ft 498 kts 297°
2026-04-24 05:46 46.81781 -136.55839 36561 ft 498 kts 297°
2026-04-24 05:47 46.85046 -136.64764 36561 ft 498 kts 297°
2026-04-24 05:47 46.88305 -136.73701 36569 ft 498 kts 297°
2026-04-24 05:48 46.91539 -136.82598 36571 ft 497 kts 297°
2026-04-24 05:48 46.94782 -136.91549 36573 ft 497 kts 297°
2026-04-24 05:49 46.98014 -137.00501 36577 ft 497 kts 297°
2026-04-24 05:49 47.01236 -137.09457 36576 ft 496 kts 297°
2026-04-24 05:50 47.04449 -137.18415 36574 ft 496 kts 297°
2026-04-24 05:50 47.07635 -137.27331 36581 ft 496 kts 297°
2026-04-24 05:51 47.10831 -137.36303 36583 ft 496 kts 297°
2026-04-24 05:51 47.14023 -137.45295 36584 ft 496 kts 297°
2026-04-24 05:52 47.17205 -137.54287 36586 ft 496 kts 297°
2026-04-24 05:52 47.20364 -137.63246 36585 ft 495 kts 297°
2026-04-24 05:53 47.23534 -137.72269 36587 ft 495 kts 297°
2026-04-24 05:53 47.26679 -137.81250 36590 ft 495 kts 297°
2026-04-24 05:54 47.29827 -137.90272 36592 ft 495 kts 297°
2026-04-24 05:54 47.32969 -137.99306 36593 ft 495 kts 297°
2026-04-24 05:55 47.36104 -138.08353 36595 ft 495 kts 297°
2026-04-24 05:55 47.39220 -138.17372 36597 ft 495 kts 297°
2026-04-24 05:56 47.42341 -138.26441 36598 ft 495 kts 297°
2026-04-24 05:56 47.45455 -138.35517 36603 ft 495 kts 297°
2026-04-24 05:57 47.48561 -138.44605 36603 ft 495 kts 297°
2026-04-24 05:57 47.51640 -138.53645 36602 ft 495 kts 297°
2026-04-24 05:58 47.54737 -138.62771 36603 ft 494 kts 297°
2026-04-24 05:58 47.57798 -138.71823 36603 ft 494 kts 297°
2026-04-24 05:59 47.60867 -138.80930 36605 ft 493 kts 297°
2026-04-24 05:59 47.63927 -138.90041 36607 ft 493 kts 297°
2026-04-24 06:00 47.66953 -138.99081 36606 ft 492 kts 297°
2026-04-24 06:00 47.69989 -139.08185 36609 ft 491 kts 297°
2026-04-24 06:01 47.73015 -139.17292 36613 ft 490 kts 297°
2026-04-24 06:01 47.76028 -139.26390 36609 ft 490 kts 297°
2026-04-24 06:02 47.79016 -139.35444 36611 ft 489 kts 297°
2026-04-24 06:02 47.82007 -139.44542 36614 ft 489 kts 297°
2026-04-24 06:03 47.84978 -139.53610 36612 ft 488 kts 297°
2026-04-24 06:03 47.87951 -139.62716 36614 ft 488 kts 297°
2026-04-24 06:04 47.90909 -139.71808 36614 ft 488 kts 297°
2026-04-24 06:04 47.93863 -139.80923 36614 ft 487 kts 297°
2026-04-24 06:05 47.96808 -139.90040 36612 ft 487 kts 297°
2026-04-24 06:05 47.99723 -139.99097 36613 ft 487 kts 297°
2026-04-24 06:06 48.02792 -140.08110 36616 ft 485 kts 301°
2026-04-24 06:06 48.06065 -140.16925 36615 ft 484 kts 301°
2026-04-24 06:07 48.09319 -140.25736 36615 ft 484 kts 301°
2026-04-24 06:07 48.12526 -140.34589 36616 ft 483 kts 301°
2026-04-24 06:08 48.15685 -140.43404 36613 ft 483 kts 301°
2026-04-24 06:08 48.18859 -140.52294 36614 ft 482 kts 301°
2026-04-24 06:09 48.22004 -140.61129 36613 ft 481 kts 301°
2026-04-24 06:09 48.25158 -140.70015 36612 ft 480 kts 301°
2026-04-24 06:10 48.28267 -140.78806 36614 ft 479 kts 301°
2026-04-24 06:11 48.32952 -140.92105 36611 ft 478 kts 301°
2026-04-24 06:11 48.36035 -141.00894 36611 ft 477 kts 301°
2026-04-24 06:12 48.39124 -141.09730 36606 ft 476 kts 301°
2026-04-24 06:12 48.42201 -141.18564 36606 ft 475 kts 301°
2026-04-24 06:13 48.45265 -141.27387 36605 ft 475 kts 301°
2026-04-24 06:13 48.48319 -141.36211 36603 ft 474 kts 301°
2026-04-24 06:14 48.51343 -141.44978 36600 ft 474 kts 301°
2026-04-24 06:14 48.54375 -141.53799 36598 ft 473 kts 301°
2026-04-24 06:15 48.57400 -141.62631 36612 ft 473 kts 301°
2026-04-24 06:15 48.59902 -141.69959 36605 ft 473 kts 301°
2026-04-24 06:16 48.62912 -141.78800 36600 ft 472 kts 301°
2026-04-24 06:16 48.65910 -141.87639 36595 ft 472 kts 301°
2026-04-24 06:17 48.68903 -141.96494 36589 ft 472 kts 301°
2026-04-24 06:17 48.71868 -142.05294 36586 ft 472 kts 301°
2026-04-24 06:18 48.74852 -142.14183 36589 ft 472 kts 301°
2026-04-24 06:18 48.77822 -142.23060 36585 ft 471 kts 300°
2026-04-24 06:19 48.80766 -142.31892 36585 ft 471 kts 300°
2026-04-24 06:19 48.83713 -142.40761 36582 ft 471 kts 300°
2026-04-24 06:20 48.86661 -142.49666 36580 ft 471 kts 300°
2026-04-24 06:20 48.89578 -142.58509 36576 ft 470 kts 300°
2026-04-24 06:21 48.92502 -142.67406 36574 ft 470 kts 300°
2026-04-24 06:21 48.95417 -142.76304 36571 ft 469 kts 300°
2026-04-24 06:22 48.98324 -142.85208 36566 ft 469 kts 300°
2026-04-24 06:22 49.01205 -142.94063 36563 ft 469 kts 300°
2026-04-24 06:23 49.04090 -143.02964 36556 ft 468 kts 300°
2026-04-24 06:23 49.06971 -143.11881 36551 ft 468 kts 300°
2026-04-24 06:24 49.09833 -143.20774 36562 ft 468 kts 300°
2026-04-24 06:24 49.12703 -143.29721 36558 ft 468 kts 300°
2026-04-24 06:25 49.15562 -143.38663 36543 ft 468 kts 300°
2026-04-24 06:25 49.18415 -143.47622 36540 ft 468 kts 299°
2026-04-24 06:26 49.21243 -143.56534 36529 ft 468 kts 299°
2026-04-24 06:26 49.24083 -143.65516 36544 ft 468 kts 299°
2026-04-24 06:27 49.26914 -143.74500 36535 ft 468 kts 298°
2026-04-24 06:27 49.29741 -143.83503 36529 ft 468 kts 298°
2026-04-24 06:28 49.32542 -143.92459 36528 ft 468 kts 298°
2026-04-24 06:28 49.35351 -144.01472 36521 ft 468 kts 298°
2026-04-24 06:29 49.38161 -144.10522 36517 ft 468 kts 298°
2026-04-24 06:29 49.40941 -144.19505 36514 ft 468 kts 297°
2026-04-24 06:30 49.43736 -144.28573 36510 ft 469 kts 297°
2026-04-24 06:30 49.46505 -144.37589 36502 ft 469 kts 297°
2026-04-24 06:31 49.49281 -144.46660 36499 ft 468 kts 297°
2026-04-24 06:31 49.52047 -144.55733 36498 ft 468 kts 296°
2026-04-24 06:32 49.54801 -144.64803 36493 ft 467 kts 296°
2026-04-24 06:32 49.57539 -144.73849 36487 ft 467 kts 296°
2026-04-24 06:33 49.60275 -144.82924 36484 ft 466 kts 296°
2026-04-24 06:33 49.62984 -144.91946 36478 ft 465 kts 296°
2026-04-24 06:34 49.65702 -145.01030 36473 ft 465 kts 296°
2026-04-24 06:34 49.68409 -145.10108 36466 ft 464 kts 295°
2026-04-24 06:35 49.71086 -145.19117 36460 ft 464 kts 295°
2026-04-24 06:35 49.73768 -145.28178 36455 ft 463 kts 295°
2026-04-24 06:36 49.76440 -145.37239 36453 ft 462 kts 295°
2026-04-24 06:36 49.79101 -145.46299 36447 ft 462 kts 294°
2026-04-24 06:37 49.81739 -145.55312 36443 ft 462 kts 294°
2026-04-24 06:37 49.84382 -145.64378 36436 ft 461 kts 294°
2026-04-24 06:38 49.87018 -145.73456 36434 ft 461 kts 294°
2026-04-24 06:38 49.89650 -145.82548 36429 ft 461 kts 293°
2026-04-24 06:39 49.92265 -145.91622 36425 ft 461 kts 293°
2026-04-24 06:39 49.94861 -146.00663 36425 ft 461 kts 293°
2026-04-24 06:40 49.97463 -146.09760 36417 ft 461 kts 293°
2026-04-24 06:40 50.00057 -146.18862 36411 ft 460 kts 292°
2026-04-24 06:41 50.02636 -146.27945 36404 ft 460 kts 292°
2026-04-24 06:41 50.05218 -146.37075 36399 ft 460 kts 292°
2026-04-24 06:42 50.07793 -146.46218 36393 ft 461 kts 292°
2026-04-24 06:42 50.10361 -146.55369 36388 ft 461 kts 291°
2026-04-24 06:43 50.12910 -146.64490 36380 ft 461 kts 291°
2026-04-24 06:43 50.15463 -146.73656 36378 ft 461 kts 291°
2026-04-24 06:44 50.18013 -146.82849 36373 ft 462 kts 291°
2026-04-24 06:44 50.20562 -146.92069 36370 ft 462 kts 291°
2026-04-24 06:45 50.23100 -147.01293 36373 ft 462 kts 290°
2026-04-24 06:45 50.25619 -147.10488 36352 ft 463 kts 290°
2026-04-24 06:46 50.28151 -147.19760 36343 ft 463 kts 290°
2026-04-24 06:46 50.30673 -147.29031 36341 ft 464 kts 290°
2026-04-24 06:47 50.33177 -147.38274 36338 ft 464 kts 289°
2026-04-24 06:47 50.35694 -147.47603 36332 ft 464 kts 289°
2026-04-24 06:48 50.38207 -147.56955 36322 ft 465 kts 289°
2026-04-24 06:48 50.40691 -147.66237 36322 ft 465 kts 289°
2026-04-24 06:49 50.43190 -147.75615 36315 ft 465 kts 288°
2026-04-24 06:49 50.45681 -147.85000 36305 ft 465 kts 288°
2026-04-24 06:50 50.48164 -147.94388 36300 ft 466 kts 288°
2026-04-24 06:50 50.50625 -148.03735 36294 ft 466 kts 288°
2026-04-24 06:51 50.53095 -148.13156 36289 ft 466 kts 288°
2026-04-24 06:51 50.55561 -148.22599 36278 ft 466 kts 287°
2026-04-24 06:52 50.58009 -148.32012 36275 ft 466 kts 287°
2026-04-24 06:52 50.60457 -148.41466 36263 ft 467 kts 287°
2026-04-24 06:53 50.62902 -148.50943 36259 ft 467 kts 287°
2026-04-24 06:53 50.65338 -148.60431 36247 ft 467 kts 286°
2026-04-24 06:54 50.67766 -148.69923 36248 ft 467 kts 286°
2026-04-24 06:54 50.70179 -148.79396 36242 ft 467 kts 286°
2026-04-24 06:55 50.72596 -148.88927 36236 ft 467 kts 285°
2026-04-24 06:55 50.75002 -148.98454 36226 ft 467 kts 285°
2026-04-24 06:56 50.77387 -149.07941 36220 ft 467 kts 285°
2026-04-24 06:56 50.79781 -149.17504 36210 ft 468 kts 285°
2026-04-24 06:57 50.82169 -149.27079 36206 ft 468 kts 285°
2026-04-24 06:57 50.84555 -149.36691 36200 ft 468 kts 284°
2026-04-24 06:58 50.86917 -149.46248 36194 ft 468 kts 284°
2026-04-24 06:58 50.89285 -149.55874 36186 ft 469 kts 284°
2026-04-24 06:59 50.91633 -149.65457 36178 ft 469 kts 284°
2026-04-24 06:59 50.93991 -149.75119 36176 ft 470 kts 283°
2026-04-24 07:00 50.96350 -149.84835 36164 ft 471 kts 283°
2026-04-24 07:00 50.98696 -149.94535 36235 ft 471 kts 283°
2026-04-24 07:00 50.99852 -149.99323 36585 ft 468 kts 283°
2026-04-24 07:01 51.01021 -150.04129 36933 ft 465 kts 283°
2026-04-24 07:01 51.02215 -150.08899 37222 ft 464 kts 284°
2026-04-24 07:01 51.03420 -150.13648 37450 ft 463 kts 284°
2026-04-24 07:01 51.04626 -150.18397 37659 ft 463 kts 284°
2026-04-24 07:02 51.05825 -150.23136 37854 ft 462 kts 283°
2026-04-24 07:02 51.07020 -150.27882 38057 ft 462 kts 283°
2026-04-24 07:02 51.08209 -150.32636 38139 ft 464 kts 283°
2026-04-24 07:03 51.10598 -150.42254 38135 ft 467 kts 283°
2026-04-24 07:03 51.12982 -150.51878 38119 ft 468 kts 283°
2026-04-24 07:04 51.15350 -150.61476 38116 ft 468 kts 283°
2026-04-24 07:04 51.17728 -150.71161 38111 ft 469 kts 283°
2026-04-24 07:05 51.20102 -150.80873 38106 ft 470 kts 283°
2026-04-24 07:05 51.22470 -150.90602 38101 ft 471 kts 283°
2026-04-24 07:06 51.24437 -150.98720 38099 ft 471 kts 283°
2026-04-24 07:06 51.26801 -151.08512 38100 ft 472 kts 282°
2026-04-24 07:07 51.29141 -151.18250 38095 ft 473 kts 282°
2026-04-24 07:07 51.32666 -151.33000 38079 ft 474 kts 282°
2026-04-24 07:08 51.35010 -151.42860 38072 ft 474 kts 282°
2026-04-24 07:08 51.37333 -151.52686 38065 ft 474 kts 282°
2026-04-24 07:09 51.39663 -151.62585 38061 ft 474 kts 282°
2026-04-24 07:09 51.41980 -151.72470 38058 ft 474 kts 282°
2026-04-24 07:10 51.44275 -151.82305 38051 ft 474 kts 282°
2026-04-24 07:10 51.46580 -151.92224 38045 ft 474 kts 282°
2026-04-24 07:11 51.48874 -152.02147 38041 ft 474 kts 282°
2026-04-24 07:11 51.51155 -152.12063 38037 ft 474 kts 282°
2026-04-24 07:12 51.53427 -152.21987 38031 ft 474 kts 282°
2026-04-24 07:12 51.55694 -152.31932 38026 ft 474 kts 282°
2026-04-24 07:13 51.57939 -152.41829 38024 ft 474 kts 282°
2026-04-24 07:13 51.60192 -152.51808 38021 ft 474 kts 282°
2026-04-24 07:14 51.62439 -152.61806 38018 ft 475 kts 281°
2026-04-24 07:14 51.64678 -152.71820 38020 ft 475 kts 281°
2026-04-24 07:15 51.66911 -152.81852 38017 ft 476 kts 281°
2026-04-24 07:15 51.69125 -152.91848 38011 ft 476 kts 281°
2026-04-24 07:16 51.71344 -153.01914 38005 ft 477 kts 281°
2026-04-24 07:16 51.73559 -153.12013 38011 ft 477 kts 281°
2026-04-24 07:17 51.75754 -153.22066 38010 ft 477 kts 281°
2026-04-24 07:17 51.77961 -153.32227 38005 ft 478 kts 281°
2026-04-24 07:18 51.80141 -153.42311 38000 ft 478 kts 281°
2026-04-24 07:18 51.82327 -153.52476 38001 ft 478 kts 281°
2026-04-24 07:19 51.84507 -153.62659 38002 ft 479 kts 281°
2026-04-24 07:19 51.86662 -153.72781 38005 ft 479 kts 281°
2026-04-24 07:20 51.88826 -153.82990 38005 ft 479 kts 281°
2026-04-24 07:20 51.90982 -153.93222 38005 ft 480 kts 281°
2026-04-24 07:21 51.93134 -154.03481 38006 ft 480 kts 281°
2026-04-24 07:21 51.95262 -154.13679 38002 ft 481 kts 281°
2026-04-24 07:22 51.97395 -154.23950 38001 ft 481 kts 281°
2026-04-24 07:22 51.99522 -154.34254 38004 ft 482 kts 281°
2026-04-24 07:23 52.01647 -154.44591 38004 ft 482 kts 281°
2026-04-24 07:23 52.03763 -154.54945 38007 ft 483 kts 281°
2026-04-24 07:24 52.05856 -154.65249 38006 ft 483 kts 281°
2026-04-24 07:24 52.07955 -154.75641 38008 ft 484 kts 281°
2026-04-24 07:25 52.10049 -154.86048 38007 ft 484 kts 281°
2026-04-24 07:25 52.12138 -154.96480 37993 ft 485 kts 281°
2026-04-24 07:26 52.14221 -155.06943 38012 ft 485 kts 281°
2026-04-24 07:26 52.16284 -155.17360 38010 ft 486 kts 281°
2026-04-24 07:27 52.18351 -155.27853 38012 ft 486 kts 281°
2026-04-24 07:27 52.20409 -155.38360 38013 ft 487 kts 281°
2026-04-24 07:28 52.22459 -155.48885 38009 ft 487 kts 281°
2026-04-24 07:28 52.24504 -155.59448 38007 ft 487 kts 281°
2026-04-24 07:29 52.26526 -155.69944 38008 ft 488 kts 281°
2026-04-24 07:29 52.28554 -155.80532 38007 ft 488 kts 281°
2026-04-24 07:30 52.30567 -155.91096 38002 ft 488 kts 281°
2026-04-24 07:30 52.32575 -156.01698 38005 ft 488 kts 281°
2026-04-24 07:31 52.34577 -156.12327 38006 ft 489 kts 280°
2026-04-24 07:31 52.36573 -156.22981 38000 ft 489 kts 280°
2026-04-24 07:32 52.38546 -156.33576 38002 ft 489 kts 280°
2026-04-24 07:32 52.40524 -156.44259 38000 ft 489 kts 280°
2026-04-24 07:33 52.42495 -156.54966 37994 ft 490 kts 280°
2026-04-24 07:33 52.44452 -156.65655 37994 ft 490 kts 280°
2026-04-24 07:34 52.46389 -156.76302 37992 ft 490 kts 280°
2026-04-24 07:34 52.48332 -156.87040 37987 ft 491 kts 280°
2026-04-24 07:35 52.50268 -156.97806 37983 ft 491 kts 280°
2026-04-24 07:35 52.52180 -157.08501 37981 ft 491 kts 280°
2026-04-24 07:36 52.54099 -157.19297 37980 ft 491 kts 280°
2026-04-24 07:36 52.56007 -157.30094 37976 ft 492 kts 280°
2026-04-24 07:37 52.57908 -157.40921 37978 ft 492 kts 280°
2026-04-24 07:37 52.59785 -157.51680 37974 ft 493 kts 280°
2026-04-24 07:38 52.61669 -157.62538 37970 ft 493 kts 279°
2026-04-24 07:38 52.63548 -157.73434 37960 ft 494 kts 279°
2026-04-24 07:39 52.65403 -157.84257 37962 ft 494 kts 279°
2026-04-24 07:39 52.67264 -157.95188 37961 ft 494 kts 279°
2026-04-24 07:40 52.69114 -158.06120 37960 ft 495 kts 279°
2026-04-24 07:40 52.70958 -158.17082 37956 ft 495 kts 279°
2026-04-24 07:41 52.72779 -158.27978 37953 ft 495 kts 279°
2026-04-24 07:41 52.74605 -158.38976 37950 ft 496 kts 279°
2026-04-24 07:42 52.76408 -158.49903 37946 ft 496 kts 279°
2026-04-24 07:42 52.78211 -158.60908 37945 ft 496 kts 279°
2026-04-24 07:43 52.80007 -158.71939 37942 ft 496 kts 279°
2026-04-24 07:43 52.81780 -158.82894 37939 ft 496 kts 279°
2026-04-24 07:44 52.83559 -158.93959 37937 ft 496 kts 279°
2026-04-24 07:44 52.85314 -159.04946 37933 ft 497 kts 279°
2026-04-24 07:45 52.87073 -159.16033 37924 ft 497 kts 279°
2026-04-24 07:45 52.88811 -159.27058 37929 ft 497 kts 279°
2026-04-24 07:46 52.90550 -159.38170 37927 ft 497 kts 279°
2026-04-24 07:46 52.92274 -159.49258 37925 ft 497 kts 279°
2026-04-24 07:47 52.93988 -159.60359 37919 ft 497 kts 279°
2026-04-24 07:47 52.95695 -159.71494 37920 ft 497 kts 279°
2026-04-24 07:48 52.97382 -159.82566 37912 ft 498 kts 279°
2026-04-24 07:48 52.99070 -159.93726 37913 ft 498 kts 279°
2026-04-24 07:49 53.00194 -160.04983 37912 ft 491 kts 270°
2026-04-24 07:49 53.00722 -160.16220 37912 ft 490 kts 269°
2026-04-24 07:50 53.01159 -160.27542 37912 ft 490 kts 269°
2026-04-24 07:50 53.01582 -160.38798 37906 ft 491 kts 269°
2026-04-24 07:51 53.02010 -160.50125 37901 ft 491 kts 269°
2026-04-24 07:51 53.02432 -160.61437 37904 ft 491 kts 269°
2026-04-24 07:52 53.02846 -160.72774 37902 ft 491 kts 269°
2026-04-24 07:52 53.03247 -160.84097 37900 ft 491 kts 269°
2026-04-24 07:53 53.03638 -160.95440 37897 ft 491 kts 269°
2026-04-24 07:53 53.04016 -161.06714 37898 ft 491 kts 269°
2026-04-24 07:54 53.04386 -161.18076 37895 ft 491 kts 268°
2026-04-24 07:54 53.04685 -161.27517 37890 ft 492 kts 268°
2026-04-24 07:55 53.05090 -161.40733 37888 ft 492 kts 268°
2026-04-24 07:55 53.05372 -161.50204 37884 ft 492 kts 268°
2026-04-24 07:56 53.05701 -161.61575 37882 ft 492 kts 268°
2026-04-24 07:56 53.06018 -161.72945 37886 ft 492 kts 268°
2026-04-24 07:57 53.06325 -161.84319 37880 ft 492 kts 268°
2026-04-24 07:57 53.06620 -161.95649 37876 ft 492 kts 268°
2026-04-24 07:58 53.06905 -162.07019 37872 ft 492 kts 268°
2026-04-24 07:58 53.07178 -162.18340 37880 ft 492 kts 268°
2026-04-24 07:59 53.07441 -162.29701 37871 ft 492 kts 268°
2026-04-24 07:59 53.07693 -162.41080 37869 ft 492 kts 268°
2026-04-24 08:00 53.07935 -162.52479 37861 ft 492 kts 268°
2026-04-24 08:00 53.08166 -162.63873 37855 ft 492 kts 268°
2026-04-24 08:01 53.08385 -162.75192 37853 ft 492 kts 268°
2026-04-24 08:01 53.08595 -162.86595 37859 ft 492 kts 268°
2026-04-24 08:02 53.08793 -162.98003 37860 ft 492 kts 268°
2026-04-24 08:02 53.08981 -163.09404 37844 ft 492 kts 268°
2026-04-24 08:03 53.09156 -163.20728 37845 ft 493 kts 268°
2026-04-24 08:03 53.09322 -163.32138 37841 ft 493 kts 268°
2026-04-24 08:04 53.09477 -163.43491 37839 ft 493 kts 268°
2026-04-24 08:04 53.09621 -163.54903 37835 ft 493 kts 268°
2026-04-24 08:05 53.09754 -163.66344 37832 ft 493 kts 268°
2026-04-24 08:05 53.09877 -163.77757 37834 ft 493 kts 268°
2026-04-24 08:06 53.09987 -163.89091 37832 ft 493 kts 267°
2026-04-24 08:06 53.10088 -164.00522 37827 ft 493 kts 267°
2026-04-24 08:07 53.10178 -164.11945 37825 ft 493 kts 267°
2026-04-24 08:07 53.10257 -164.23351 37820 ft 493 kts 267°
2026-04-24 08:08 53.10324 -164.34775 37817 ft 493 kts 267°
2026-04-24 08:09 53.10406 -164.51840 37814 ft 493 kts 267°
2026-04-24 08:09 53.10446 -164.63250 37814 ft 493 kts 267°
2026-04-24 08:10 53.10476 -164.74673 37808 ft 493 kts 267°
2026-04-24 08:10 53.10495 -164.86088 37811 ft 493 kts 267°
2026-04-24 08:11 53.10502 -164.97496 37806 ft 493 kts 267°
2026-04-24 08:11 53.10499 -165.08848 37802 ft 493 kts 267°
2026-04-24 08:12 53.10486 -165.20278 37799 ft 493 kts 267°
2026-04-24 08:12 53.10461 -165.31693 37794 ft 492 kts 267°
2026-04-24 08:13 53.10425 -165.43023 37795 ft 492 kts 267°
2026-04-24 08:13 53.10378 -165.54442 37793 ft 492 kts 267°
2026-04-24 08:14 53.10321 -165.65851 37791 ft 492 kts 266°
2026-04-24 08:14 53.10253 -165.77239 37792 ft 492 kts 266°
2026-04-24 08:15 53.10174 -165.88564 37785 ft 492 kts 266°
2026-04-24 08:15 53.10084 -165.99952 37784 ft 492 kts 266°
2026-04-24 08:16 53.09983 -166.11353 37781 ft 492 kts 266°
2026-04-24 08:16 53.09871 -166.22743 37781 ft 491 kts 266°
2026-04-24 08:17 53.09749 -166.34048 37778 ft 491 kts 266°
2026-04-24 08:17 53.09616 -166.45438 37777 ft 491 kts 266°
2026-04-24 08:18 53.09472 -166.56819 37777 ft 491 kts 266°
2026-04-24 08:18 53.09317 -166.68147 37777 ft 491 kts 266°
2026-04-24 08:19 53.09152 -166.79514 37777 ft 491 kts 266°
2026-04-24 08:19 53.08975 -166.90872 37763 ft 491 kts 266°
2026-04-24 08:20 53.08790 -167.02150 37773 ft 490 kts 266°
2026-04-24 08:20 53.08592 -167.13496 37760 ft 490 kts 266°
2026-04-24 08:21 53.08384 -167.24838 37764 ft 490 kts 266°
2026-04-24 08:21 53.08164 -167.36195 37767 ft 490 kts 266°
2026-04-24 08:22 53.07935 -167.47502 37760 ft 489 kts 265°
2026-04-24 08:22 53.07696 -167.58737 37762 ft 489 kts 265°
2026-04-24 08:23 53.07445 -167.70037 37756 ft 489 kts 265°
2026-04-24 08:23 53.07183 -167.81359 37755 ft 489 kts 265°
2026-04-24 08:24 53.06910 -167.92684 37753 ft 489 kts 265°
2026-04-24 08:24 53.06629 -168.03908 37749 ft 489 kts 265°
2026-04-24 08:25 53.06335 -168.15224 37748 ft 489 kts 265°
2026-04-24 08:25 53.06031 -168.26515 37749 ft 489 kts 265°
2026-04-24 08:26 53.05718 -168.37752 37749 ft 489 kts 265°
2026-04-24 08:26 53.05392 -168.49058 37745 ft 489 kts 265°
2026-04-24 08:27 53.05055 -168.60360 37746 ft 489 kts 265°
2026-04-24 08:27 53.04708 -168.71648 37744 ft 489 kts 265°
2026-04-24 08:28 53.04351 -168.82929 37744 ft 489 kts 265°
2026-04-24 08:28 53.03985 -168.94144 37746 ft 489 kts 265°
2026-04-24 08:29 53.03606 -169.05430 37747 ft 489 kts 265°
2026-04-24 08:29 53.03217 -169.16702 37742 ft 489 kts 265°
2026-04-24 08:30 53.02819 -169.27919 37740 ft 488 kts 265°
2026-04-24 08:30 53.02408 -169.39208 37743 ft 489 kts 265°
2026-04-24 08:31 53.01987 -169.50479 37741 ft 489 kts 265°
2026-04-24 08:31 53.01557 -169.61685 37739 ft 488 kts 265°
2026-04-24 08:32 53.01115 -169.72945 37743 ft 488 kts 265°
2026-04-24 08:32 53.00662 -169.84214 37747 ft 488 kts 265°
2026-04-24 08:33 53.00198 -169.95473 37738 ft 488 kts 264°
2026-04-24 08:33 53.00290 -170.06771 37737 ft 490 kts 271°
2026-04-24 08:34 53.00718 -170.18017 37738 ft 490 kts 272°
2026-04-24 08:34 53.01190 -170.29301 37746 ft 490 kts 272°
2026-04-24 08:35 53.01646 -170.40605 37736 ft 490 kts 272°
2026-04-24 08:35 53.02080 -170.51892 37745 ft 489 kts 272°
2026-04-24 08:36 53.02498 -170.63176 37740 ft 489 kts 272°
2026-04-24 08:36 53.02904 -170.74397 37739 ft 489 kts 272°
2026-04-24 08:37 53.03303 -170.85681 37739 ft 489 kts 272°
2026-04-24 08:37 53.03690 -170.96965 37734 ft 489 kts 271°
2026-04-24 08:38 53.04067 -171.08259 37729 ft 488 kts 271°
2026-04-24 08:38 53.04430 -171.19455 37733 ft 488 kts 271°
2026-04-24 08:39 53.04785 -171.30744 37728 ft 488 kts 271°
2026-04-24 08:39 53.05129 -171.42005 37733 ft 488 kts 271°
2026-04-24 08:40 53.05461 -171.53274 37729 ft 487 kts 271°
2026-04-24 08:40 53.05784 -171.64542 37728 ft 487 kts 271°
2026-04-24 08:41 53.06096 -171.75790 37723 ft 487 kts 271°
2026-04-24 08:41 53.06395 -171.86975 37726 ft 487 kts 271°
2026-04-24 08:42 53.06685 -171.98232 37723 ft 487 kts 271°
2026-04-24 08:42 53.06918 -172.07597 37726 ft 487 kts 271°
2026-04-24 08:43 53.07190 -172.18859 37722 ft 487 kts 271°
2026-04-24 08:43 53.07450 -172.30115 37723 ft 487 kts 271°
2026-04-24 08:44 53.07700 -172.41378 37721 ft 486 kts 270°
2026-04-24 08:44 53.07937 -172.52637 37719 ft 486 kts 270°
2026-04-24 08:45 53.08164 -172.63817 37717 ft 486 kts 270°
2026-04-24 08:45 53.08383 -172.75063 37720 ft 486 kts 270°
2026-04-24 08:46 53.08590 -172.86309 37717 ft 486 kts 270°
2026-04-24 08:46 53.08786 -172.97549 37716 ft 486 kts 270°
2026-04-24 08:47 53.08971 -173.08790 37718 ft 485 kts 270°
2026-04-24 08:47 53.09144 -173.19950 37716 ft 485 kts 270°
2026-04-24 08:48 53.09309 -173.31184 37717 ft 485 kts 270°
2026-04-24 08:48 53.09463 -173.42424 37715 ft 485 kts 270°
2026-04-24 08:49 53.09605 -173.53648 37717 ft 485 kts 270°
2026-04-24 08:49 53.09737 -173.64804 37719 ft 485 kts 270°
2026-04-24 08:50 53.09859 -173.76023 37713 ft 485 kts 270°
2026-04-24 08:50 53.09970 -173.87240 37719 ft 485 kts 269°
2026-04-24 08:51 53.10071 -173.98459 37718 ft 484 kts 269°
2026-04-24 08:51 53.10159 -174.09686 37717 ft 484 kts 269°
2026-04-24 08:52 53.10239 -174.20910 37716 ft 484 kts 269°
2026-04-24 08:52 53.10309 -174.32050 37718 ft 484 kts 269°
2026-04-24 08:53 53.10368 -174.43273 37710 ft 484 kts 269°
2026-04-24 08:53 53.10415 -174.54403 37716 ft 484 kts 269°
2026-04-24 08:54 53.10453 -174.65623 37718 ft 484 kts 269°
2026-04-24 08:54 53.10480 -174.76815 37714 ft 483 kts 269°
2026-04-24 08:55 53.10496 -174.88030 37715 ft 483 kts 269°
2026-04-24 08:55 53.10502 -174.99146 37717 ft 483 kts 269°
2026-04-24 08:56 53.10498 -175.10327 37716 ft 483 kts 269°
2026-04-24 08:56 53.10483 -175.21500 37716 ft 482 kts 269°
2026-04-24 08:57 53.10458 -175.32660 37722 ft 482 kts 269°
2026-04-24 08:57 53.10422 -175.43745 37723 ft 482 kts 269°
2026-04-24 08:58 53.10375 -175.54897 37719 ft 481 kts 269°
2026-04-24 08:58 53.10319 -175.66049 37725 ft 481 kts 269°
2026-04-24 08:59 53.10252 -175.77202 37719 ft 481 kts 268°
2026-04-24 08:59 53.10175 -175.88277 37722 ft 481 kts 268°
2026-04-24 09:00 53.10088 -175.99425 37724 ft 481 kts 268°
2026-04-24 09:00 53.09990 -176.10553 37719 ft 481 kts 268°
2026-04-24 09:01 53.09882 -176.21689 37724 ft 480 kts 268°
2026-04-24 09:01 53.09763 -176.32805 37724 ft 480 kts 268°
2026-04-24 09:02 53.09635 -176.43852 37721 ft 480 kts 268°
2026-04-24 09:02 53.09496 -176.54951 37725 ft 480 kts 268°
2026-04-24 09:03 53.09346 -176.66070 37725 ft 479 kts 268°
2026-04-24 09:03 53.09186 -176.77172 37725 ft 479 kts 268°
2026-04-24 09:04 53.09016 -176.88263 37728 ft 479 kts 268°
2026-04-24 09:04 53.08837 -176.99285 37727 ft 479 kts 268°
2026-04-24 09:05 53.08647 -177.10356 37728 ft 479 kts 268°
2026-04-24 09:05 53.08446 -177.21450 37730 ft 478 kts 268°
2026-04-24 09:06 53.08236 -177.32463 37735 ft 478 kts 268°
2026-04-24 09:06 53.08016 -177.43524 37732 ft 478 kts 267°
2026-04-24 09:07 53.07785 -177.54562 37736 ft 478 kts 267°
2026-04-24 09:07 53.07420 -177.71122 37735 ft 477 kts 267°
2026-04-24 09:08 53.07164 -177.82145 37737 ft 477 kts 267°
2026-04-24 09:08 53.06900 -177.93109 37738 ft 477 kts 267°
2026-04-24 09:09 53.06623 -178.04130 37740 ft 477 kts 267°
2026-04-24 09:09 53.06337 -178.15148 37741 ft 476 kts 267°
2026-04-24 09:10 53.06043 -178.26103 37744 ft 476 kts 267°
2026-04-24 09:10 53.05736 -178.37103 37748 ft 476 kts 266°
2026-04-24 09:11 53.05419 -178.48130 37750 ft 476 kts 266°
2026-04-24 09:11 53.05095 -178.59064 37751 ft 476 kts 266°
2026-04-24 09:12 53.04758 -178.70079 37754 ft 476 kts 266°
2026-04-24 09:12 53.04411 -178.81083 37751 ft 476 kts 266°
2026-04-24 09:13 53.04054 -178.92073 37757 ft 476 kts 266°
2026-04-24 09:13 53.03689 -179.03010 37756 ft 476 kts 266°
2026-04-24 09:14 53.03311 -179.13998 37761 ft 476 kts 266°
2026-04-24 09:14 53.02924 -179.24985 37763 ft 476 kts 266°
2026-04-24 09:15 53.02528 -179.35955 37763 ft 476 kts 266°
2026-04-24 09:15 53.02123 -179.46871 37768 ft 476 kts 266°
2026-04-24 09:16 53.01706 -179.57846 37763 ft 476 kts 266°
2026-04-24 09:16 53.01278 -179.68819 37773 ft 476 kts 266°
2026-04-24 09:17 53.00841 -179.79790 37771 ft 476 kts 266°
2026-04-24 09:17 53.00396 -179.90695 37775 ft 476 kts 265°
2026-04-24 09:18 52.99679 179.98383 37779 ft 475 kts 257°
2026-04-24 09:18 52.98188 179.87670 37778 ft 475 kts 256°
2026-04-24 09:19 52.96565 179.77043 37780 ft 475 kts 256°
2026-04-24 09:19 52.94920 179.66421 37783 ft 475 kts 256°
2026-04-24 09:20 52.93290 179.55885 37784 ft 475 kts 256°
2026-04-24 09:20 52.91647 179.45277 37787 ft 474 kts 256°
2026-04-24 09:21 52.89996 179.34679 37792 ft 474 kts 256°
2026-04-24 09:21 52.88339 179.24108 37793 ft 474 kts 255°
2026-04-24 09:22 52.86670 179.13534 37797 ft 473 kts 255°
2026-04-24 09:22 52.85008 179.03070 37798 ft 473 kts 255°
2026-04-24 09:23 52.83327 178.92553 37804 ft 473 kts 255°
2026-04-24 09:23 52.81634 178.82029 37805 ft 472 kts 255°
2026-04-24 09:24 52.79935 178.71533 37806 ft 472 kts 255°
2026-04-24 09:24 52.78240 178.61128 37809 ft 471 kts 255°
2026-04-24 09:25 52.76525 178.50667 37813 ft 471 kts 255°
2026-04-24 09:25 52.74812 178.40275 37813 ft 471 kts 255°
2026-04-24 09:26 52.73083 178.29857 37816 ft 470 kts 255°
2026-04-24 09:26 52.71345 178.19443 37818 ft 470 kts 255°
2026-04-24 09:27 52.69598 178.09043 37823 ft 470 kts 255°
2026-04-24 09:27 52.67856 177.98728 37824 ft 469 kts 255°
2026-04-24 09:28 52.66093 177.88355 37824 ft 469 kts 254°
2026-04-24 09:28 52.64325 177.78010 37829 ft 469 kts 254°
2026-04-24 09:29 52.62558 177.67736 37829 ft 468 kts 254°
2026-04-24 09:29 52.60779 177.57451 37832 ft 468 kts 254°
2026-04-24 09:30 52.58978 177.47099 37834 ft 468 kts 254°
2026-04-24 09:30 52.57478 177.38521 37835 ft 468 kts 254°
2026-04-24 09:31 52.55667 177.28222 37838 ft 468 kts 254°
2026-04-24 09:31 52.53862 177.18011 37842 ft 468 kts 254°
2026-04-24 09:32 52.52036 177.07742 37841 ft 468 kts 254°
2026-04-24 09:32 52.50205 176.97506 37848 ft 468 kts 254°
2026-04-24 09:33 52.48372 176.87315 37848 ft 467 kts 254°
2026-04-24 09:33 52.46521 176.77085 37849 ft 467 kts 254°
2026-04-24 09:34 52.44663 176.66865 37854 ft 467 kts 253°
2026-04-24 09:34 52.42794 176.56648 37856 ft 467 kts 253°
2026-04-24 09:35 52.40931 176.46521 37856 ft 467 kts 253°
2026-04-24 09:35 52.39047 176.36331 37860 ft 467 kts 253°
2026-04-24 09:36 52.37154 176.26154 37859 ft 466 kts 253°
2026-04-24 09:36 52.35265 176.16046 37862 ft 466 kts 253°
2026-04-24 09:37 52.33358 176.05903 37865 ft 466 kts 253°
2026-04-24 09:37 52.31445 175.95782 37864 ft 466 kts 253°
2026-04-24 09:38 52.29535 175.85730 37867 ft 465 kts 253°
2026-04-24 09:38 52.27601 175.75606 37870 ft 465 kts 253°
2026-04-24 09:39 52.25665 175.65524 37871 ft 465 kts 253°
2026-04-24 09:39 52.23720 175.55451 37869 ft 465 kts 253°
2026-04-24 09:40 52.21780 175.45458 37874 ft 465 kts 253°
2026-04-24 09:40 52.19816 175.35390 37875 ft 464 kts 253°
2026-04-24 09:41 52.17848 175.25355 37876 ft 464 kts 253°
2026-04-24 09:41 52.15874 175.15340 37876 ft 464 kts 253°
2026-04-24 09:42 52.13890 175.05331 37878 ft 464 kts 253°
2026-04-24 09:42 52.11907 174.95375 37875 ft 463 kts 253°
2026-04-24 09:43 52.09918 174.85443 37878 ft 463 kts 253°
2026-04-24 09:43 52.07911 174.75466 37880 ft 463 kts 253°
2026-04-24 09:44 52.05897 174.65512 37877 ft 463 kts 253°
2026-04-24 09:44 52.03877 174.55571 37885 ft 463 kts 253°
2026-04-24 09:45 52.01850 174.45652 37881 ft 462 kts 253°
2026-04-24 09:45 51.99817 174.35752 37882 ft 462 kts 253°
2026-04-24 09:46 51.97791 174.25931 37884 ft 461 kts 252°
2026-04-24 09:46 51.95741 174.16050 37883 ft 461 kts 252°
2026-04-24 09:47 51.93698 174.06244 37883 ft 460 kts 252°
2026-04-24 09:47 51.91639 173.96412 37887 ft 459 kts 252°
2026-04-24 09:48 51.89578 173.86623 37882 ft 459 kts 252°
2026-04-24 09:48 51.87517 173.76875 37886 ft 459 kts 252°
2026-04-24 09:49 51.85443 173.67116 37890 ft 458 kts 252°
2026-04-24 09:49 51.83362 173.57371 37886 ft 458 kts 252°
2026-04-24 09:50 51.81277 173.47651 37887 ft 457 kts 252°
2026-04-24 09:50 51.79197 173.37999 37891 ft 457 kts 252°
2026-04-24 09:51 51.77098 173.28309 37887 ft 457 kts 252°
2026-04-24 09:51 51.74989 173.18615 37895 ft 457 kts 252°
2026-04-24 09:52 51.72871 173.08928 37882 ft 457 kts 252°
2026-04-24 09:52 51.70748 172.99264 37888 ft 457 kts 252°
2026-04-24 09:53 51.68634 172.89682 37891 ft 456 kts 252°
2026-04-24 09:53 51.66493 172.80027 37894 ft 456 kts 252°
2026-04-24 09:54 51.64351 172.70410 37893 ft 456 kts 252°
2026-04-24 09:54 51.62197 172.60782 37885 ft 456 kts 252°
2026-04-24 09:55 51.60051 172.51236 37891 ft 456 kts 252°
2026-04-24 09:55 51.57885 172.41647 37891 ft 456 kts 252°
2026-04-24 09:56 51.55710 172.32058 37891 ft 456 kts 251°
2026-04-24 09:56 51.53529 172.22488 37896 ft 455 kts 251°
2026-04-24 09:57 51.51352 172.12978 37893 ft 455 kts 251°
2026-04-24 09:57 51.49159 172.03438 37889 ft 455 kts 251°
2026-04-24 09:58 51.46959 171.93914 37890 ft 455 kts 251°
2026-04-24 09:58 51.44764 171.84452 37889 ft 454 kts 251°
2026-04-24 09:59 51.42550 171.74952 37893 ft 454 kts 251°
2026-04-24 09:59 51.40331 171.65473 37895 ft 454 kts 251°
2026-04-24 10:00 51.38104 171.55996 37894 ft 454 kts 251°
2026-04-24 10:00 51.35885 171.46602 37894 ft 454 kts 251°
2026-04-24 10:01 51.33644 171.37151 37895 ft 454 kts 251°
2026-04-24 10:01 51.31395 171.27709 37892 ft 454 kts 251°
2026-04-24 10:02 51.29135 171.18264 37892 ft 454 kts 251°
2026-04-24 10:02 51.26886 171.08902 37891 ft 454 kts 251°
2026-04-24 10:03 51.24611 170.99478 37892 ft 455 kts 251°
2026-04-24 10:03 51.22330 170.90065 37889 ft 455 kts 251°
2026-04-24 10:04 51.20034 170.80632 37892 ft 455 kts 250°
2026-04-24 10:04 51.17733 170.71215 37889 ft 455 kts 250°
2026-04-24 10:05 51.15440 170.61877 37894 ft 455 kts 250°
2026-04-24 10:05 51.13125 170.52485 37896 ft 455 kts 250°
2026-04-24 10:06 51.09633 170.38398 37894 ft 455 kts 250°
2026-04-24 10:07 51.07295 170.29016 37892 ft 456 kts 250°
2026-04-24 10:07 51.04962 170.19692 37898 ft 456 kts 250°
2026-04-24 10:08 51.02607 170.10318 37894 ft 456 kts 250°
2026-04-24 10:08 51.00208 170.00960 37893 ft 457 kts 247°
2026-04-24 10:09 50.97335 169.91942 37892 ft 458 kts 244°
2026-04-24 10:09 50.94345 169.83003 37895 ft 459 kts 244°
2026-04-24 10:10 50.91344 169.74122 37895 ft 459 kts 244°
2026-04-24 10:10 50.88324 169.65191 37896 ft 459 kts 244°
2026-04-24 10:11 50.85302 169.56264 37894 ft 459 kts 244°
2026-04-24 10:11 50.82293 169.47402 37898 ft 459 kts 244°
2026-04-24 10:12 50.79256 169.38490 37892 ft 459 kts 244°
2026-04-24 10:12 50.76231 169.29645 37890 ft 459 kts 244°
2026-04-24 10:13 50.73180 169.20757 37890 ft 459 kts 244°
2026-04-24 10:13 50.70128 169.11896 37898 ft 459 kts 244°
2026-04-24 10:14 50.67068 169.03040 37903 ft 459 kts 243°
2026-04-24 10:14 50.64025 168.94268 37888 ft 459 kts 243°
2026-04-24 10:15 50.60952 168.85440 37898 ft 459 kts 243°
2026-04-24 10:15 50.57871 168.76616 37899 ft 459 kts 243°
2026-04-24 10:16 50.54784 168.67809 37893 ft 459 kts 243°
2026-04-24 10:16 50.51704 168.59050 37888 ft 459 kts 243°
2026-04-24 10:17 50.49125 168.51741 37891 ft 459 kts 243°
2026-04-24 10:17 50.46021 168.42971 37894 ft 459 kts 243°
2026-04-24 10:18 50.42909 168.34208 37889 ft 459 kts 243°
2026-04-24 10:18 50.39808 168.25505 37894 ft 459 kts 243°
2026-04-24 10:19 50.36679 168.16754 37885 ft 459 kts 243°
2026-04-24 10:19 50.33547 168.08024 37891 ft 459 kts 243°
2026-04-24 10:20 50.30428 167.99361 37887 ft 459 kts 243°
2026-04-24 10:20 50.27283 167.90653 37891 ft 459 kts 243°
2026-04-24 10:21 50.24130 167.81954 37890 ft 459 kts 243°
2026-04-24 10:21 50.20968 167.73258 37892 ft 459 kts 242°
2026-04-24 10:22 50.17822 167.64636 37891 ft 459 kts 242°
2026-04-24 10:22 50.14651 167.55976 37889 ft 459 kts 242°
2026-04-24 10:23 50.11490 167.47372 37886 ft 459 kts 242°
2026-04-24 10:23 50.08300 167.38715 37892 ft 459 kts 242°
2026-04-24 10:24 50.05129 167.30141 37894 ft 459 kts 242°
2026-04-24 10:24 50.01938 167.21539 37897 ft 459 kts 242°
2026-04-24 10:25 49.98739 167.12947 37895 ft 459 kts 242°
2026-04-24 10:25 49.95532 167.04360 37890 ft 459 kts 242°
2026-04-24 10:26 49.92320 166.95788 37890 ft 459 kts 242°
2026-04-24 10:26 49.89106 166.87239 37896 ft 459 kts 242°
2026-04-24 10:27 49.85902 166.78746 37898 ft 459 kts 242°
2026-04-24 10:27 49.82672 166.70211 37893 ft 459 kts 242°
2026-04-24 10:28 49.79433 166.61679 37899 ft 459 kts 242°
2026-04-24 10:28 49.76194 166.53176 37894 ft 458 kts 242°
2026-04-24 10:29 49.72947 166.44681 37893 ft 458 kts 242°
2026-04-24 10:29 49.69720 166.36262 37894 ft 458 kts 241°
2026-04-24 10:30 49.66460 166.27788 37949 ft 459 kts 241°
2026-04-24 10:30 49.64827 166.23555 38203 ft 458 kts 241°
2026-04-24 10:30 49.63189 166.19339 38450 ft 458 kts 241°
2026-04-24 10:30 49.61542 166.15124 38618 ft 458 kts 241°
2026-04-24 10:31 49.59894 166.10921 38766 ft 458 kts 241°
2026-04-24 10:31 49.58239 166.06709 38908 ft 458 kts 241°
2026-04-24 10:31 49.56607 166.02558 39036 ft 459 kts 241°
2026-04-24 10:31 49.54951 165.98351 39153 ft 459 kts 241°
2026-04-24 10:32 49.53289 165.94133 39291 ft 459 kts 241°
2026-04-24 10:32 49.51630 165.89926 39428 ft 459 kts 241°
2026-04-24 10:32 49.49964 165.85711 39557 ft 460 kts 241°
2026-04-24 10:33 49.46628 165.77286 39783 ft 461 kts 240°
2026-04-24 10:33 49.43304 165.68918 39889 ft 462 kts 240°
2026-04-24 10:34 49.39943 165.60485 39892 ft 462 kts 240°
2026-04-24 10:34 49.36574 165.52061 39891 ft 462 kts 240°
2026-04-24 10:35 49.33202 165.43655 39893 ft 462 kts 240°
2026-04-24 10:35 49.29842 165.35304 39897 ft 462 kts 240°
2026-04-24 10:36 49.26456 165.26915 39892 ft 463 kts 240°
2026-04-24 10:36 49.23058 165.18523 39892 ft 463 kts 240°
2026-04-24 10:37 49.19662 165.10163 39892 ft 463 kts 240°
2026-04-24 10:37 49.16279 165.01860 39897 ft 463 kts 240°
2026-04-24 10:38 49.12867 164.93515 39894 ft 463 kts 240°
2026-04-24 10:38 49.09439 164.85154 39896 ft 463 kts 240°
2026-04-24 10:39 49.06035 164.76879 39896 ft 463 kts 240°
2026-04-24 10:39 49.02598 164.68549 39896 ft 463 kts 240°
2026-04-24 10:40 48.99157 164.60236 39896 ft 463 kts 240°
2026-04-24 10:40 48.95709 164.51933 39890 ft 463 kts 240°
2026-04-24 10:41 48.92260 164.43650 39892 ft 463 kts 240°
2026-04-24 10:41 48.88825 164.35429 39895 ft 463 kts 240°
2026-04-24 10:42 48.85355 164.27148 39896 ft 463 kts 239°
2026-04-24 10:42 48.81908 164.18948 39891 ft 463 kts 239°
2026-04-24 10:43 48.78431 164.10703 39889 ft 464 kts 239°
2026-04-24 10:43 48.74945 164.02461 39891 ft 464 kts 239°
2026-04-24 10:44 48.71449 163.94221 39891 ft 464 kts 239°
2026-04-24 10:44 48.67952 163.86002 39904 ft 464 kts 239°
2026-04-24 10:45 48.64468 163.77843 39890 ft 464 kts 239°
2026-04-24 10:45 48.60957 163.69642 39892 ft 464 kts 239°
2026-04-24 10:46 48.57440 163.61453 39888 ft 464 kts 239°
2026-04-24 10:46 48.53939 163.53325 39903 ft 464 kts 239°
2026-04-24 10:47 48.50415 163.45168 39900 ft 464 kts 239°
2026-04-24 10:47 48.46877 163.37006 39895 ft 464 kts 239°
2026-04-24 10:48 48.43335 163.28858 39904 ft 464 kts 239°
2026-04-24 10:48 48.39808 163.20768 39891 ft 464 kts 239°
2026-04-24 10:49 48.36254 163.12641 39893 ft 465 kts 239°
2026-04-24 10:49 48.32697 163.04533 39892 ft 464 kts 239°
2026-04-24 10:50 48.29129 162.96422 39892 ft 465 kts 239°
2026-04-24 10:50 48.25560 162.88336 39904 ft 464 kts 239°
2026-04-24 10:51 48.21980 162.80247 39889 ft 465 kts 239°
2026-04-24 10:51 48.18420 162.72227 39907 ft 464 kts 238°
2026-04-24 10:52 48.14834 162.64183 39742 ft 454 kts 239°
2026-04-24 10:52 48.13121 162.60360 39889 ft 440 kts 239°
2026-04-24 10:52 48.11431 162.56586 39906 ft 433 kts 239°
2026-04-24 10:53 48.08094 162.49122 39903 ft 429 kts 240°
2026-04-24 10:53 48.04772 162.41707 39901 ft 429 kts 239°
2026-04-24 10:54 48.01462 162.34345 39905 ft 429 kts 239°
2026-04-24 10:54 47.98123 162.26950 39908 ft 428 kts 239°
2026-04-24 10:55 47.94806 162.19623 39908 ft 428 kts 239°
2026-04-24 10:55 47.91468 162.12268 39910 ft 428 kts 239°
2026-04-24 10:56 47.88124 162.04920 39910 ft 427 kts 239°
2026-04-24 10:56 47.84779 161.97588 39909 ft 427 kts 239°
2026-04-24 10:57 47.81453 161.90319 39910 ft 427 kts 239°
2026-04-24 10:57 47.78103 161.83018 39909 ft 427 kts 239°
2026-04-24 10:58 47.74748 161.75724 39912 ft 427 kts 239°
2026-04-24 10:58 47.71413 161.68492 39911 ft 426 kts 239°
2026-04-24 10:59 47.68057 161.61233 39915 ft 426 kts 239°
2026-04-24 10:59 47.64691 161.53975 39916 ft 426 kts 239°
2026-04-24 11:00 47.61339 161.46765 39916 ft 426 kts 238°
2026-04-24 11:00 47.57974 161.39544 39918 ft 425 kts 238°
2026-04-24 11:01 47.54603 161.32332 39924 ft 425 kts 238°
2026-04-24 11:01 47.51165 161.25178 39924 ft 425 kts 237°
2026-04-24 11:02 47.47708 161.18125 39924 ft 425 kts 237°
2026-04-24 11:02 47.44239 161.11044 39926 ft 425 kts 237°
2026-04-24 11:03 47.40772 161.03958 39928 ft 425 kts 237°
2026-04-24 11:03 47.37296 160.96862 39934 ft 425 kts 237°
2026-04-24 11:04 47.33845 160.89835 39932 ft 425 kts 237°
2026-04-24 11:04 47.30367 160.82772 39931 ft 425 kts 237°
2026-04-24 11:05 47.26884 160.75717 39933 ft 425 kts 237°
2026-04-24 11:05 47.23397 160.68674 39935 ft 425 kts 237°
2026-04-24 11:06 47.19931 160.61690 39935 ft 425 kts 237°
2026-04-24 11:06 47.16434 160.54660 39934 ft 425 kts 237°
2026-04-24 11:07 47.11773 160.45321 39939 ft 425 kts 237°
2026-04-24 11:07 47.08267 160.38315 39945 ft 425 kts 237°
2026-04-24 11:08 47.04753 160.31311 39943 ft 425 kts 237°
2026-04-24 11:08 47.01269 160.24385 39941 ft 425 kts 237°
2026-04-24 11:09 46.97739 160.17385 39945 ft 426 kts 237°
2026-04-24 11:09 46.94207 160.10401 39944 ft 426 kts 237°
2026-04-24 11:10 46.90697 160.03474 39946 ft 426 kts 237°
2026-04-24 11:10 46.87160 159.96514 39954 ft 426 kts 237°
2026-04-24 11:11 46.83621 159.89566 39941 ft 426 kts 236°
2026-04-24 11:11 46.80094 159.82658 39953 ft 426 kts 236°
2026-04-24 11:12 46.76538 159.75713 39953 ft 426 kts 236°
2026-04-24 11:12 46.72989 159.68797 39957 ft 426 kts 236°
2026-04-24 11:13 46.69458 159.61934 39958 ft 426 kts 236°
2026-04-24 11:13 46.65902 159.55039 39960 ft 426 kts 236°
2026-04-24 11:14 46.62340 159.48152 39961 ft 426 kts 236°
2026-04-24 11:14 46.58772 159.41267 39961 ft 425 kts 236°
2026-04-24 11:15 46.55200 159.34393 39961 ft 425 kts 236°
2026-04-24 11:15 46.51648 159.27573 39959 ft 425 kts 236°
2026-04-24 11:16 46.48068 159.20718 39959 ft 425 kts 236°
2026-04-24 11:16 46.44482 159.13868 39961 ft 425 kts 236°
2026-04-24 11:17 46.40922 159.07083 39963 ft 425 kts 236°
2026-04-24 11:17 46.37336 159.00267 39971 ft 425 kts 236°
2026-04-24 11:18 46.33739 158.93445 39968 ft 425 kts 236°
2026-04-24 11:18 46.30174 158.86701 39966 ft 424 kts 236°
2026-04-24 11:19 46.26584 158.79925 39970 ft 424 kts 236°
2026-04-24 11:19 46.22990 158.73160 39971 ft 424 kts 236°
2026-04-24 11:20 46.19398 158.66412 39972 ft 423 kts 235°
2026-04-24 11:20 46.15826 158.59719 39972 ft 423 kts 235°
2026-04-24 11:21 46.12217 158.52974 39976 ft 423 kts 235°
2026-04-24 11:21 46.08625 158.46275 39979 ft 423 kts 235°
2026-04-24 11:22 46.05023 158.39575 39979 ft 423 kts 235°
2026-04-24 11:22 46.01438 158.32922 39980 ft 423 kts 235°
2026-04-24 11:23 45.97827 158.26238 39981 ft 423 kts 235°
2026-04-24 11:23 45.94217 158.19568 39980 ft 422 kts 235°
2026-04-24 11:24 45.90601 158.12905 39983 ft 422 kts 235°
2026-04-24 11:24 45.87002 158.06291 39985 ft 422 kts 235°
2026-04-24 11:25 45.83382 157.99653 39985 ft 422 kts 235°
2026-04-24 11:25 45.79755 157.93016 39984 ft 422 kts 234°
2026-04-24 11:26 45.76152 157.86441 39985 ft 422 kts 234°
2026-04-24 11:26 45.72522 157.79829 39988 ft 422 kts 234°
2026-04-24 11:27 45.68882 157.73217 39987 ft 422 kts 234°
2026-04-24 11:27 45.65271 157.66673 39992 ft 421 kts 234°
2026-04-24 11:28 45.61634 157.60096 39991 ft 422 kts 234°
2026-04-24 11:28 45.57988 157.53519 39990 ft 422 kts 234°
2026-04-24 11:29 45.54334 157.46942 39992 ft 422 kts 234°
2026-04-24 11:29 45.50710 157.40435 39992 ft 422 kts 234°
2026-04-24 11:30 45.47056 157.33889 39995 ft 422 kts 234°
2026-04-24 11:30 45.43397 157.27349 39997 ft 422 kts 234°
2026-04-24 11:31 45.39737 157.20822 39995 ft 421 kts 234°
2026-04-24 11:31 45.36094 157.14339 39997 ft 421 kts 234°
2026-04-24 11:32 45.32428 157.07834 39991 ft 421 kts 234°
2026-04-24 11:32 45.28757 157.01332 40003 ft 421 kts 234°
2026-04-24 11:33 45.25080 156.94836 40006 ft 421 kts 234°
2026-04-24 11:33 45.21429 156.88399 40003 ft 421 kts 234°
2026-04-24 11:34 45.17739 156.81909 40002 ft 421 kts 234°
2026-04-24 11:34 45.14079 156.75486 40002 ft 421 kts 234°
2026-04-24 11:35 45.10389 156.69025 40005 ft 421 kts 234°
2026-04-24 11:35 45.06694 156.62570 40002 ft 421 kts 234°
2026-04-24 11:36 45.03003 156.56138 40003 ft 421 kts 234°
2026-04-24 11:36 44.99334 156.49758 40008 ft 421 kts 234°
2026-04-24 11:37 44.95629 156.43330 40013 ft 421 kts 233°
2026-04-24 11:37 44.91922 156.36912 40009 ft 421 kts 233°
2026-04-24 11:38 44.88209 156.30499 40011 ft 422 kts 233°
2026-04-24 11:38 44.84520 156.24142 40011 ft 422 kts 233°
2026-04-24 11:39 44.80798 156.17743 40010 ft 422 kts 233°
2026-04-24 11:39 44.77071 156.11348 40010 ft 422 kts 233°
2026-04-24 11:40 44.73342 156.04965 40013 ft 422 kts 233°
2026-04-24 11:40 44.69630 155.98625 40009 ft 422 kts 233°
2026-04-24 11:41 44.65889 155.92251 40011 ft 422 kts 233°
2026-04-24 11:41 44.62148 155.85889 40011 ft 422 kts 233°
2026-04-24 11:42 44.58422 155.79568 40011 ft 422 kts 233°
2026-04-24 11:42 44.54670 155.73218 40010 ft 422 kts 233°
2026-04-24 11:43 44.50910 155.66867 40014 ft 423 kts 233°
2026-04-24 11:43 44.47150 155.60530 40013 ft 423 kts 233°
2026-04-24 11:44 44.43409 155.54239 40014 ft 423 kts 233°
2026-04-24 11:44 44.39640 155.47916 40015 ft 423 kts 233°
2026-04-24 11:45 44.35866 155.41598 40016 ft 423 kts 233°
2026-04-24 11:45 44.32105 155.35315 40019 ft 423 kts 233°
2026-04-24 11:46 44.28318 155.29004 40015 ft 423 kts 233°
2026-04-24 11:46 44.24533 155.22709 40012 ft 423 kts 233°
2026-04-24 11:47 44.20748 155.16429 40014 ft 423 kts 233°
2026-04-24 11:47 44.16988 155.10203 40016 ft 422 kts 233°
2026-04-24 11:48 44.13157 155.03974 40013 ft 423 kts 232°
2026-04-24 11:48 44.09277 154.97814 40014 ft 422 kts 232°
2026-04-24 11:49 44.05403 154.91676 40013 ft 422 kts 232°
2026-04-24 11:49 44.01529 154.85525 40013 ft 422 kts 232°
2026-04-24 11:50 43.97662 154.79389 40016 ft 422 kts 232°
2026-04-24 11:50 43.93818 154.73300 40016 ft 422 kts 232°
2026-04-24 11:51 43.89932 154.67158 40014 ft 422 kts 232°
2026-04-24 11:51 43.86055 154.61046 40013 ft 422 kts 232°
2026-04-24 11:52 43.82196 154.54976 40012 ft 422 kts 232°
2026-04-24 11:52 43.78304 154.48865 40013 ft 422 kts 232°
2026-04-24 11:53 43.74422 154.42783 40013 ft 421 kts 232°
2026-04-24 11:53 43.70558 154.36743 40015 ft 421 kts 232°
2026-04-24 11:54 43.66661 154.30664 40011 ft 421 kts 232°
2026-04-24 11:54 43.62788 154.24635 40003 ft 421 kts 232°
2026-04-24 11:55 43.58895 154.18588 40009 ft 421 kts 232°
2026-04-24 11:55 43.55659 154.13570 40009 ft 420 kts 232°
2026-04-24 11:56 43.51767 154.07547 40010 ft 420 kts 232°
2026-04-24 11:56 43.47873 154.01535 40002 ft 420 kts 232°
2026-04-24 11:57 43.44001 153.95569 40006 ft 419 kts 232°
2026-04-24 11:57 43.40115 153.89593 40005 ft 419 kts 232°
2026-04-24 11:58 43.36212 153.83604 40002 ft 419 kts 232°
2026-04-24 11:58 43.32341 153.77677 40005 ft 419 kts 232°
2026-04-24 11:59 43.28446 153.71724 40002 ft 419 kts 232°
2026-04-24 11:59 43.24547 153.65778 40002 ft 419 kts 232°
2026-04-24 12:00 43.20644 153.59837 40000 ft 418 kts 232°
2026-04-24 12:00 43.16740 153.53908 40000 ft 418 kts 232°
2026-04-24 12:01 43.12860 153.48029 40001 ft 418 kts 232°
2026-04-24 12:01 43.08956 153.42124 39994 ft 418 kts 232°
2026-04-24 12:02 43.05047 153.36222 39993 ft 418 kts 232°
2026-04-24 12:02 43.01158 153.30364 39990 ft 418 kts 232°
2026-04-24 12:03 42.97248 153.24488 39990 ft 417 kts 232°
2026-04-24 12:03 42.93338 153.18622 39994 ft 417 kts 232°
2026-04-24 12:04 42.89440 153.12786 39992 ft 417 kts 232°
2026-04-24 12:04 42.85521 153.06931 39997 ft 417 kts 232°
2026-04-24 12:05 42.81603 153.01089 39987 ft 417 kts 232°
2026-04-24 12:05 42.77687 152.95262 39996 ft 417 kts 232°
2026-04-24 12:06 42.73790 152.89474 39988 ft 416 kts 232°
2026-04-24 12:06 42.69869 152.83663 39985 ft 416 kts 232°
2026-04-24 12:07 42.65949 152.77865 39985 ft 416 kts 232°
2026-04-24 12:07 42.62049 152.72109 39984 ft 416 kts 232°
2026-04-24 12:08 42.58125 152.66328 39984 ft 416 kts 232°
2026-04-24 12:08 42.54201 152.60558 39985 ft 415 kts 232°
2026-04-24 12:09 42.50305 152.54842 39979 ft 415 kts 232°
2026-04-24 12:09 42.46374 152.49085 39980 ft 415 kts 232°
2026-04-24 12:10 42.42443 152.43339 39972 ft 415 kts 232°
2026-04-24 12:11 42.36569 152.34775 39972 ft 415 kts 232°
2026-04-24 12:11 42.32628 152.29043 39975 ft 415 kts 232°
2026-04-24 12:12 42.28686 152.23321 39975 ft 415 kts 232°
2026-04-24 12:12 42.24769 152.17648 39969 ft 416 kts 232°
2026-04-24 12:13 42.20821 152.11940 39967 ft 416 kts 232°
2026-04-24 12:13 42.16869 152.06237 39960 ft 416 kts 232°
2026-04-24 12:14 42.12914 152.00542 39961 ft 416 kts 232°
2026-04-24 12:14 42.08952 151.94847 39964 ft 416 kts 232°
2026-04-24 12:15 42.05009 151.89191 39957 ft 416 kts 232°
2026-04-24 12:15 42.01036 151.83503 39957 ft 416 kts 232°
2026-04-24 12:16 41.97069 151.77835 39953 ft 416 kts 232°
2026-04-24 12:16 41.93098 151.72172 39953 ft 416 kts 232°
2026-04-24 12:17 41.89125 151.66517 39948 ft 416 kts 232°
2026-04-24 12:17 41.85173 151.60903 39951 ft 416 kts 232°
2026-04-24 12:18 41.81192 151.55258 39945 ft 416 kts 232°
2026-04-24 12:18 41.77205 151.49615 39945 ft 416 kts 232°
2026-04-24 12:19 41.73218 151.43984 39936 ft 416 kts 232°
2026-04-24 12:19 41.69255 151.38398 39941 ft 416 kts 232°
2026-04-24 12:20 41.65263 151.32781 39942 ft 417 kts 232°
2026-04-24 12:20 41.61258 151.27158 39940 ft 417 kts 232°
2026-04-24 12:21 41.57246 151.21535 39939 ft 417 kts 232°
2026-04-24 12:21 41.53248 151.15944 39941 ft 416 kts 232°
2026-04-24 12:22 41.49271 151.10392 39941 ft 416 kts 232°
2026-04-24 12:22 41.45267 151.04812 39938 ft 415 kts 232°
2026-04-24 12:23 41.41275 150.99260 39941 ft 415 kts 232°
2026-04-24 12:23 41.37277 150.93710 39943 ft 414 kts 232°
2026-04-24 12:24 41.33306 150.88209 39940 ft 413 kts 232°
2026-04-24 12:24 41.29317 150.82692 39941 ft 412 kts 232°
2026-04-24 12:25 41.25344 150.77208 39934 ft 411 kts 232°
2026-04-24 12:25 41.21396 150.71768 39942 ft 411 kts 232°
2026-04-24 12:26 41.17421 150.66300 39940 ft 410 kts 232°
2026-04-24 12:26 41.13447 150.60846 39942 ft 410 kts 232°
2026-04-24 12:27 41.09487 150.55419 39948 ft 409 kts 232°
2026-04-24 12:27 41.05551 150.50036 39940 ft 409 kts 232°
2026-04-24 12:28 41.01593 150.44633 39942 ft 408 kts 232°
2026-04-24 12:28 40.97635 150.39240 39942 ft 408 kts 233°
2026-04-24 12:29 40.93699 150.33886 39943 ft 407 kts 233°
2026-04-24 12:29 40.89747 150.28521 39942 ft 407 kts 233°
2026-04-24 12:30 40.85795 150.23165 39942 ft 406 kts 233°
2026-04-24 12:30 40.81842 150.17818 39944 ft 406 kts 233°
2026-04-24 12:31 40.77888 150.12479 39945 ft 406 kts 233°
2026-04-24 12:31 40.73933 150.07147 39948 ft 406 kts 233°
2026-04-24 12:32 40.69996 150.01850 39948 ft 406 kts 233°
2026-04-24 12:32 40.66044 149.96542 39948 ft 406 kts 233°
2026-04-24 12:33 40.62081 149.91230 39950 ft 406 kts 233°
2026-04-24 12:33 40.58142 149.85959 39947 ft 406 kts 233°
2026-04-24 12:34 40.54182 149.80669 39951 ft 406 kts 233°
2026-04-24 12:34 40.50217 149.75383 39954 ft 405 kts 233°
2026-04-24 12:35 40.46268 149.70126 39953 ft 405 kts 233°
2026-04-24 12:35 40.42302 149.64856 39958 ft 405 kts 233°
2026-04-24 12:36 40.38324 149.59598 39960 ft 405 kts 233°
2026-04-24 12:36 40.34347 149.54365 39965 ft 405 kts 233°
2026-04-24 12:37 40.30365 149.49134 39963 ft 405 kts 233°
2026-04-24 12:37 40.26406 149.43939 39975 ft 405 kts 233°
2026-04-24 12:38 40.22421 149.38717 39970 ft 404 kts 233°
2026-04-24 12:38 40.18441 149.33511 39970 ft 404 kts 233°
2026-04-24 12:39 40.10485 149.23133 39974 ft 403 kts 233°
2026-04-24 12:40 40.06530 149.17988 39979 ft 403 kts 233°
2026-04-24 12:40 40.02558 149.12829 39982 ft 402 kts 233°
2026-04-24 12:41 39.98610 149.07710 39980 ft 401 kts 233°
2026-04-24 12:41 39.94648 149.02583 39979 ft 401 kts 233°
2026-04-24 12:42 39.91358 148.98331 39984 ft 400 kts 233°
2026-04-24 12:42 39.87398 148.93221 39985 ft 400 kts 233°
2026-04-24 12:43 39.83441 148.88125 39985 ft 399 kts 233°
2026-04-24 12:43 39.79489 148.83043 39985 ft 399 kts 233°
2026-04-24 12:44 39.75574 148.78018 39998 ft 398 kts 233°
2026-04-24 12:44 39.71628 148.72962 39992 ft 397 kts 233°
2026-04-24 12:45 39.67691 148.67925 39997 ft 397 kts 233°
2026-04-24 12:45 39.63755 148.62898 39991 ft 396 kts 233°
2026-04-24 12:46 39.59845 148.57913 39995 ft 396 kts 233°
2026-04-24 12:46 39.55909 148.52903 40000 ft 395 kts 233°
2026-04-24 12:47 39.51997 148.47932 39999 ft 395 kts 233°
2026-04-24 12:47 39.48074 148.42955 40001 ft 394 kts 233°
2026-04-24 12:48 39.44152 148.37988 40004 ft 394 kts 233°
2026-04-24 12:48 39.40227 148.33026 40005 ft 393 kts 233°
2026-04-24 12:49 39.36340 148.28121 40006 ft 393 kts 233°
2026-04-24 12:49 39.32424 148.23185 40009 ft 392 kts 233°
2026-04-24 12:50 39.28517 148.18270 40010 ft 391 kts 233°
2026-04-24 12:50 39.24613 148.13365 40016 ft 391 kts 233°
2026-04-24 12:51 39.20733 148.08500 40016 ft 390 kts 233°
2026-04-24 12:51 39.16836 148.03621 40016 ft 390 kts 233°
2026-04-24 12:52 39.12940 147.98751 40015 ft 390 kts 233°
2026-04-24 12:52 39.09072 147.93925 40018 ft 389 kts 232°
2026-04-24 12:53 39.05183 147.89079 40021 ft 389 kts 232°
2026-04-24 12:53 39.01295 147.84244 40020 ft 388 kts 232°
2026-04-24 12:54 38.97414 147.79423 40023 ft 388 kts 232°
2026-04-24 12:54 38.93527 147.74604 40026 ft 387 kts 232°
2026-04-24 12:55 38.89671 147.69830 40026 ft 387 kts 232°
2026-04-24 12:55 38.85797 147.65043 40030 ft 386 kts 232°
2026-04-24 12:56 38.81927 147.60269 40033 ft 385 kts 232°
2026-04-24 12:56 38.78064 147.55509 40034 ft 384 kts 232°
2026-04-24 12:57 38.74242 147.50809 40036 ft 383 kts 232°
2026-04-24 12:57 38.70386 147.46072 40038 ft 382 kts 232°
2026-04-24 12:58 38.66551 147.41369 40036 ft 381 kts 232°
2026-04-24 12:58 38.62736 147.36699 40040 ft 380 kts 232°
2026-04-24 12:59 38.58911 147.32023 40042 ft 380 kts 232°
2026-04-24 12:59 38.55089 147.27358 40045 ft 379 kts 232°
2026-04-24 13:00 38.51300 147.22741 40044 ft 378 kts 232°
2026-04-24 13:00 38.47488 147.18103 40043 ft 378 kts 232°
2026-04-24 13:01 38.43678 147.13474 40046 ft 377 kts 232°
2026-04-24 13:01 38.39883 147.08871 40047 ft 376 kts 232°
2026-04-24 13:02 38.36117 147.04310 40045 ft 375 kts 232°
2026-04-24 13:02 38.32330 146.99730 40055 ft 374 kts 232°
2026-04-24 13:03 38.28558 146.95175 40049 ft 373 kts 232°
2026-04-24 13:03 38.24790 146.90632 40045 ft 372 kts 232°
2026-04-24 13:04 38.21062 146.86144 40048 ft 370 kts 232°
2026-04-24 13:04 38.17316 146.81641 40048 ft 370 kts 232°
2026-04-24 13:05 38.13576 146.77151 40050 ft 369 kts 232°
2026-04-24 13:05 38.09873 146.72713 40051 ft 368 kts 232°
2026-04-24 13:06 38.06146 146.68253 40055 ft 367 kts 232°
2026-04-24 13:06 38.02428 146.63810 40054 ft 366 kts 232°
2026-04-24 13:07 37.98717 146.59381 40055 ft 365 kts 232°
2026-04-24 13:07 37.95035 146.54994 40060 ft 365 kts 232°
2026-04-24 13:08 37.91341 146.50598 40056 ft 364 kts 232°
2026-04-24 13:08 37.87648 146.46210 40055 ft 363 kts 232°
2026-04-24 13:09 37.82121 146.39654 40056 ft 362 kts 232°
2026-04-24 13:09 37.78445 146.35302 40056 ft 362 kts 232°
2026-04-24 13:10 37.74773 146.30962 40059 ft 361 kts 232°
2026-04-24 13:10 37.71106 146.26633 40062 ft 360 kts 232°
2026-04-24 13:11 37.67443 146.22315 40062 ft 360 kts 232°
2026-04-24 13:11 37.63811 146.18040 40062 ft 359 kts 232°
2026-04-24 13:12 37.60156 146.13744 40063 ft 358 kts 233°
2026-04-24 13:12 37.56500 146.09452 40073 ft 358 kts 233°
2026-04-24 13:13 37.52886 146.05215 40064 ft 357 kts 233°
2026-04-24 13:13 37.49248 146.00956 40065 ft 356 kts 232°
2026-04-24 13:14 37.45614 145.96707 40069 ft 356 kts 232°
2026-04-24 13:14 37.42000 145.92487 40070 ft 356 kts 232°
2026-04-24 13:15 37.38365 145.88249 40069 ft 356 kts 232°
2026-04-24 13:15 37.34725 145.84012 40074 ft 356 kts 232°
2026-04-24 13:16 37.31081 145.79776 40073 ft 356 kts 232°
2026-04-24 13:16 37.27440 145.75550 40068 ft 356 kts 232°
2026-04-24 13:17 37.23818 145.71348 40073 ft 355 kts 232°
2026-04-24 13:17 37.20572 145.66778 40079 ft 345 kts 241°
2026-04-24 13:18 37.18263 145.61578 40078 ft 339 kts 250°
2026-04-24 13:18 37.16570 145.56101 40079 ft 339 kts 251°
2026-04-24 13:19 37.14954 145.50549 40076 ft 339 kts 252°
2026-04-24 13:19 37.13338 145.45026 40081 ft 339 kts 251°
2026-04-24 13:20 37.11694 145.39483 40079 ft 339 kts 251°
2026-04-24 13:20 37.10038 145.33940 40083 ft 339 kts 251°
2026-04-24 13:21 37.08393 145.28444 40087 ft 339 kts 251°
2026-04-24 13:21 37.06733 145.22905 40094 ft 339 kts 251°
2026-04-24 13:22 37.05072 145.17374 40087 ft 339 kts 251°
2026-04-24 13:22 37.03407 145.11843 40093 ft 339 kts 251°
2026-04-24 13:23 37.01751 145.06349 40100 ft 339 kts 251°
2026-04-24 13:23 37.00081 145.00819 40091 ft 339 kts 251°
2026-04-24 13:24 36.98408 144.95294 40102 ft 339 kts 251°
2026-04-24 13:24 36.96733 144.89769 40096 ft 339 kts 251°
2026-04-24 13:25 36.95064 144.84278 40095 ft 339 kts 251°
2026-04-24 13:25 36.93385 144.78761 40103 ft 339 kts 251°
2026-04-24 13:26 36.91701 144.73242 40104 ft 339 kts 251°
2026-04-24 13:26 36.90013 144.67720 40101 ft 340 kts 250°
2026-04-24 13:27 36.88333 144.62232 40098 ft 340 kts 250°
2026-04-24 13:27 36.86641 144.56719 40098 ft 340 kts 250°
2026-04-24 13:28 36.84947 144.51208 40100 ft 340 kts 250°
2026-04-24 13:28 36.83248 144.45694 40106 ft 340 kts 250°
2026-04-24 13:29 36.81834 144.41113 40117 ft 340 kts 250°
2026-04-24 13:29 36.79853 144.34705 40115 ft 340 kts 250°
2026-04-24 13:30 36.78147 144.29198 40112 ft 340 kts 250°
2026-04-24 13:30 36.76436 144.23693 40107 ft 340 kts 250°
2026-04-24 13:31 36.75009 144.19111 40113 ft 341 kts 250°
2026-04-24 13:31 36.73288 144.13593 40113 ft 341 kts 250°
2026-04-24 13:32 36.71576 144.08110 40111 ft 341 kts 250°
2026-04-24 13:32 36.69845 144.02582 40113 ft 341 kts 250°
2026-04-24 13:33 36.68117 143.97071 40112 ft 341 kts 250°
2026-04-24 13:33 36.66383 143.91552 40115 ft 341 kts 250°
2026-04-24 13:34 36.64659 143.86076 40115 ft 342 kts 250°
2026-04-24 13:34 36.62920 143.80555 40113 ft 342 kts 250°
2026-04-24 13:35 36.61178 143.75045 40116 ft 342 kts 250°
2026-04-24 13:35 36.59440 143.69568 40116 ft 342 kts 250°
2026-04-24 13:36 36.57690 143.64061 40120 ft 342 kts 250°
2026-04-24 13:36 36.55935 143.58544 40116 ft 342 kts 250°
2026-04-24 13:37 36.54177 143.53027 40118 ft 343 kts 250°
2026-04-24 13:37 36.52429 143.47552 40116 ft 343 kts 250°
2026-04-24 13:38 36.50667 143.42042 40117 ft 343 kts 250°
2026-04-24 13:38 36.48902 143.36534 40117 ft 343 kts 249°
2026-04-24 13:39 36.47127 143.31008 40122 ft 343 kts 249°
2026-04-24 13:39 36.45364 143.25526 40119 ft 343 kts 249°
2026-04-24 13:40 36.43589 143.20019 40118 ft 343 kts 249°
2026-04-24 13:40 36.41819 143.14539 40121 ft 343 kts 249°
2026-04-24 13:41 36.40033 143.09017 40118 ft 343 kts 249°
2026-04-24 13:41 36.38260 143.03547 40121 ft 344 kts 249°
2026-04-24 13:42 36.36473 142.98045 40122 ft 344 kts 249°
2026-04-24 13:42 36.34683 142.92541 40122 ft 344 kts 249°
2026-04-24 13:43 36.32889 142.87036 40119 ft 344 kts 249°
2026-04-24 13:43 36.31092 142.81533 40120 ft 344 kts 249°
2026-04-24 13:44 36.29301 142.76059 40123 ft 344 kts 249°
2026-04-24 13:44 36.27496 142.70553 40121 ft 345 kts 249°
2026-04-24 13:45 36.25686 142.65039 40120 ft 345 kts 249°
2026-04-24 13:45 36.23873 142.59530 40120 ft 345 kts 249°
2026-04-24 13:46 36.22070 142.54059 40124 ft 345 kts 249°
2026-04-24 13:46 36.20251 142.48552 40124 ft 345 kts 249°
2026-04-24 13:47 36.18429 142.43044 40124 ft 345 kts 249°
2026-04-24 13:47 36.16567 142.37606 40121 ft 345 kts 248°
2026-04-24 13:48 36.14579 142.32171 40121 ft 345 kts 247°
2026-04-24 13:48 36.12593 142.26756 40121 ft 345 kts 248°
2026-04-24 13:49 36.10634 142.21369 40124 ft 345 kts 248°
2026-04-24 13:49 36.08664 142.15934 40121 ft 345 kts 248°
2026-04-24 13:50 36.06706 142.10533 40120 ft 345 kts 248°
2026-04-24 13:50 36.04847 142.05392 40122 ft 345 kts 248°
2026-04-24 13:51 36.02902 141.99964 40121 ft 345 kts 248°
2026-04-24 13:51 36.00953 141.94537 40121 ft 345 kts 248°
2026-04-24 13:52 35.99004 141.89135 40123 ft 345 kts 248°
2026-04-24 13:52 35.98025 141.86426 40005 ft 345 kts 248°
2026-04-24 13:52 35.97045 141.83717 39779 ft 344 kts 248°
2026-04-24 13:53 35.96090 141.81012 39540 ft 343 kts 249°
2026-04-24 13:53 35.95312 141.78244 39305 ft 341 kts 253°
2026-04-24 13:53 35.94771 141.75397 39085 ft 341 kts 257°
2026-04-24 13:53 35.94493 141.72479 38865 ft 342 kts 262°
2026-04-24 13:54 35.94427 141.69546 38602 ft 342 kts 263°
2026-04-24 13:54 35.94422 141.66611 38333 ft 343 kts 264°
2026-04-24 13:54 35.94442 141.63709 37749 ft 342 kts 264°
2026-04-24 13:54 35.94469 141.60709 36755 ft 348 kts 265°
2026-04-24 13:55 35.94493 141.57727 35787 ft 355 kts 265°
2026-04-24 13:55 35.94514 141.54658 34834 ft 361 kts 265°
2026-04-24 13:55 35.94532 141.51538 34226 ft 362 kts 265°
2026-04-24 13:55 35.94549 141.48402 33959 ft 366 kts 265°
2026-04-24 13:56 35.94564 141.45295 33698 ft 367 kts 265°
2026-04-24 13:56 35.94577 141.42134 33432 ft 369 kts 265°
2026-04-24 13:56 35.94588 141.38968 33128 ft 368 kts 265°
2026-04-24 13:56 35.94600 141.35811 32376 ft 367 kts 265°
2026-04-24 13:57 35.94608 141.32637 31815 ft 373 kts 266°
2026-04-24 13:57 35.94613 141.29400 31331 ft 380 kts 266°
2026-04-24 13:57 35.94618 141.26153 30868 ft 384 kts 266°
2026-04-24 13:57 35.94624 141.22828 30276 ft 387 kts 266°
2026-04-24 13:58 35.94633 141.19558 29584 ft 391 kts 266°
2026-04-24 13:58 35.94643 141.16124 28861 ft 393 kts 266°
2026-04-24 13:58 35.94649 141.12740 28182 ft 394 kts 266°
2026-04-24 13:58 35.94654 141.09337 27515 ft 395 kts 266°
2026-04-24 13:59 35.94656 141.05972 26870 ft 396 kts 266°
2026-04-24 13:59 35.94657 141.02563 26234 ft 397 kts 266°
2026-04-24 13:59 35.94797 140.99129 25609 ft 402 kts 272°
2026-04-24 13:59 35.95371 140.95714 24997 ft 411 kts 281°
2026-04-24 14:00 35.96455 140.92446 24406 ft 421 kts 291°
2026-04-24 14:00 35.97883 140.89270 23827 ft 425 kts 294°
2026-04-24 14:00 35.99436 140.86144 23144 ft 428 kts 296°
2026-04-24 14:00 36.01012 140.83112 22470 ft 426 kts 297°
2026-04-24 14:01 36.02647 140.80007 21787 ft 422 kts 298°
2026-04-24 14:01 36.04230 140.76990 21132 ft 416 kts 298°
2026-04-24 14:01 36.05790 140.73990 20501 ft 411 kts 298°
2026-04-24 14:01 36.07315 140.71025 19872 ft 405 kts 298°
2026-04-24 14:02 36.08813 140.68095 19361 ft 398 kts 299°
2026-04-24 14:02 36.10271 140.65235 19119 ft 391 kts 299°
2026-04-24 14:02 36.11697 140.62420 18886 ft 392 kts 299°
2026-04-24 14:02 36.13143 140.59561 18678 ft 391 kts 300°
2026-04-24 14:03 36.14582 140.56719 18201 ft 387 kts 300°
2026-04-24 14:03 36.16012 140.53896 17419 ft 386 kts 300°
2026-04-24 14:03 36.17431 140.51093 16743 ft 383 kts 300°
2026-04-24 14:03 36.18847 140.48294 16099 ft 381 kts 300°
2026-04-24 14:04 36.20179 140.45466 15448 ft 379 kts 294°
2026-04-24 14:04 36.20965 140.42380 14905 ft 374 kts 277°
2026-04-24 14:04 36.21142 140.39150 14656 ft 379 kts 271°
2026-04-24 14:04 36.21189 140.35873 14366 ft 381 kts 271°
2026-04-24 14:05 36.21226 140.32586 14061 ft 381 kts 271°
2026-04-24 14:05 36.21094 140.29357 13737 ft 381 kts 261°
2026-04-24 14:05 36.20280 140.26234 13427 ft 381 kts 244°
2026-04-24 14:05 36.18710 140.23596 13125 ft 383 kts 226°
2026-04-24 14:06 36.16532 140.21707 12821 ft 385 kts 207°
2026-04-24 14:06 36.13955 140.20763 12567 ft 389 kts 189°
2026-04-24 14:06 36.11236 140.20885 12318 ft 393 kts 171°
2026-04-24 14:06 36.08571 140.21425 12057 ft 392 kts 178°
2026-04-24 14:07 36.05866 140.21275 11787 ft 388 kts 189°
2026-04-24 14:07 36.03213 140.20803 11309 ft 381 kts 190°
2026-04-24 14:07 36.00563 140.20534 11014 ft 384 kts 184°
2026-04-24 14:07 35.97872 140.20409 10750 ft 383 kts 186°
2026-04-24 14:08 35.95275 140.20090 10595 ft 365 kts 188°
2026-04-24 14:08 35.92841 140.19753 10493 ft 348 kts 188°
2026-04-24 14:08 35.90495 140.19417 10391 ft 331 kts 188°
2026-04-24 14:08 35.88262 140.19091 10331 ft 314 kts 188°
2026-04-24 14:09 35.86146 140.18779 10273 ft 300 kts 188°
2026-04-24 14:09 35.84101 140.18474 10165 ft 294 kts 189°
2026-04-24 14:09 35.82100 140.18174 10044 ft 294 kts 188°
2026-04-24 14:09 35.80069 140.17868 9924 ft 294 kts 188°
2026-04-24 14:10 35.78725 140.17667 9839 ft 293 kts 188°
2026-04-24 14:10 35.76019 140.17262 9649 ft 292 kts 188°
2026-04-24 14:10 35.73999 140.16959 9334 ft 291 kts 188°
2026-04-24 14:10 35.72003 140.16661 8943 ft 288 kts 188°
2026-04-24 14:11 35.70014 140.16364 8550 ft 287 kts 188°
2026-04-24 14:11 35.68058 140.16072 8169 ft 285 kts 188°
2026-04-24 14:11 35.64121 140.15484 8008 ft 285 kts 188°
2026-04-24 14:12 35.62150 140.15190 7912 ft 285 kts 188°
2026-04-24 14:12 35.60185 140.14897 7743 ft 284 kts 188°
2026-04-24 14:12 35.58224 140.14604 7565 ft 284 kts 188°
2026-04-24 14:12 35.56271 140.14313 7468 ft 282 kts 188°
2026-04-24 14:13 35.54316 140.14022 7455 ft 283 kts 188°
2026-04-24 14:13 35.52362 140.13732 7455 ft 283 kts 188°
2026-04-24 14:13 35.50425 140.13444 7454 ft 284 kts 188°
2026-04-24 14:13 35.48474 140.13153 7453 ft 284 kts 188°
2026-04-24 14:14 35.46506 140.12860 7455 ft 283 kts 188°
2026-04-24 14:14 35.44545 140.12569 7453 ft 284 kts 188°
2026-04-24 14:14 35.40837 140.11238 6956 ft 276 kts 213°
2026-04-24 14:15 35.39332 140.09789 6541 ft 275 kts 225°
2026-04-24 14:15 35.38155 140.07963 6100 ft 272 kts 243°
2026-04-24 14:15 35.37725 140.05781 5671 ft 265 kts 274°
2026-04-24 14:15 35.37888 140.03609 5209 ft 251 kts 270°
2026-04-24 14:16 35.37691 140.01506 4664 ft 247 kts 264°
2026-04-24 14:16 35.37476 139.99433 4174 ft 240 kts 266°
2026-04-24 14:16 35.37319 139.97445 4037 ft 233 kts 268°
2026-04-24 14:17 35.37327 139.93628 4036 ft 216 kts 288°
2026-04-24 14:17 35.38027 139.92053 3999 ft 205 kts 317°
2026-04-24 14:17 35.40353 139.90196 3339 ft 201 kts 335°
2026-04-24 14:18 35.41154 139.89640 3138 ft 200 kts 334°
2026-04-24 14:18 35.42362 139.88776 2787 ft 201 kts 334°
2026-04-24 14:18 35.43948 139.87625 2388 ft 196 kts 335°
2026-04-24 14:18 35.45090 139.86817 2136 ft 184 kts 335°
2026-04-24 14:19 35.45825 139.86299 1969 ft 176 kts 335°
2026-04-24 14:19 35.46861 139.85563 1732 ft 167 kts 335°
2026-04-24 14:19 35.47843 139.84865 1492 ft 159 kts 335°
2026-04-24 14:19 35.48775 139.84203 1291 ft 151 kts 335°
2026-04-24 14:20 35.49668 139.83571 1089 ft 149 kts 334°
2026-04-24 14:20 35.50567 139.82932 886 ft 149 kts 334°
2026-04-24 14:20 35.51471 139.82286 707 ft 151 kts 334°
2026-04-24 14:20 35.52373 139.81637 483 ft 149 kts 334°
2026-04-24 14:21 35.53270 139.81011 277 ft 149 kts 335°
2026-04-24 14:21 35.54159 139.80370 101 ft 148 kts 335°
2026-04-24 14:21 35.55031 139.79749 45 ft 139 kts 335°
2026-04-24 14:21 35.55787 139.79227 33 ft 103 kts 329°
2026-04-24 14:22 35.56145 139.78967 33 ft 18 kts 330°
2026-04-24 14:22 35.56177 139.78890 31 ft 17 kts 262°
2026-04-24 14:22 35.56135 139.78789 29 ft 0 kts 241°
2026-04-24 14:23 35.56130 139.78777 29 ft 8 kts 243°
2026-04-24 14:23 35.56163 139.78706 30 ft 12 kts 323°
2026-04-24 14:23 35.56238 139.78650 31 ft 14 kts 330°
2026-04-24 14:24 35.56322 139.78590 30 ft 14 kts 330°
2026-04-24 14:24 35.56400 139.78534 32 ft 12 kts 329°
2026-04-24 14:24 35.56462 139.78483 32 ft 10 kts 311°
2026-04-24 14:24 35.56451 139.78395 30 ft 14 kts 238°
2026-04-24 14:25 35.56394 139.78275 31 ft 17 kts 240°
2026-04-24 14:25 35.56337 139.78156 31 ft 15 kts 240°
2026-04-24 14:25 35.56286 139.78047 31 ft 14 kts 240°
2026-04-24 14:25 35.56238 139.77947 32 ft 14 kts 239°
2026-04-24 14:26 35.56178 139.77820 31 ft 20 kts 239°
2026-04-24 14:26 35.56098 139.77652 30 ft 24 kts 239°
2026-04-24 14:26 35.56017 139.77480 29 ft 23 kts 240°
2026-04-24 14:26 35.55943 139.77323 31 ft 19 kts 240°
2026-04-24 14:27 35.55874 139.77232 30 ft 14 kts 216°
2026-04-24 14:27 35.55826 139.77190 28 ft 0 kts 214°
2026-04-24 14:28 35.55816 139.77182 29 ft 6 kts 214°
2026-04-24 14:28 35.55742 139.77118 31 ft 17 kts 214°
2026-04-24 14:28 35.55647 139.77037 29 ft 17 kts 215°
2026-04-24 14:28 35.55556 139.76958 30 ft 15 kts 215°
2026-04-24 14:29 35.55471 139.76905 31 ft 12 kts 179°
2026-04-24 14:29 35.55398 139.76950 29 ft 15 kts 150°
2026-04-24 14:29 35.55286 139.77027 29 ft 18 kts 150°
2026-04-24 14:29 35.55208 139.77087 30 ft 6 kts 152°
2026-04-24 14:30 35.55169 139.77100 30 ft 5 kts 176°
2026-04-24 14:30 35.55138 139.77079 29 ft 5 kts 231°
2026-04-24 14:30 35.55114 139.77034 28 ft 9 kts 238°
2026-04-24 14:30 35.55068 139.76941 28 ft 16 kts 239°
2026-04-24 14:31 35.55028 139.76863 28 ft 3 kts 221°
2026-04-24 14:31 35.55004 139.76860 28 ft 5 kts 173°
2026-04-24 14:31 35.54969 139.76881 28 ft 5 kts 149°
2026-04-24 14:31 35.54958 139.76889 28 ft 0 kts 149°